| time (UTC) | temp F | wind direction | speed MPH | gust MPH | rain 1hr in | rain 24hr in | rain mn in | humidity % | barometer mb |
| 20260506044215 | 57 | 360 | 12.0 | 22.0 | 0.00 | 0.00 | 0.00 | 32 | 1015.6 |
| 20260506044126 | 57 | 252 | 13.0 | 22.0 | 0.00 | 0.00 | 0.00 | 31 | 1015.6 |
| 20260506044038 | 57 | 360 | 16.0 | 22.0 | 0.00 | 0.00 | 0.00 | 31 | 1015.6 |
| 20260506043924 | 57 | 360 | 16.0 | 22.0 | 0.00 | 0.00 | 0.00 | 31 | 1015.6 |
| 20260506043820 | 57 | 238 | 18.0 | 22.0 | 0.00 | 0.00 | 0.00 | 31 | 1015.6 |
| 20260506043729 | 57 | 225 | 15.0 | 22.0 | 0.00 | 0.00 | 0.00 | 32 | 1015.6 |
| 20260506043623 | 57 | 360 | 13.0 | 22.0 | 0.00 | 0.00 | 0.00 | 32 | 1015.6 |
| 20260506043533 | 57 | 360 | 12.0 | 22.0 | 0.00 | 0.00 | 0.00 | 32 | 1015.6 |
| 20260506043432 | 57 | 256 | 12.0 | 22.0 | 0.00 | 0.00 | 0.00 | 32 | 1015.6 |
| 20260506043322 | 57 | 360 | 12.0 | 25.0 | 0.00 | 0.00 | 0.00 | 32 | 1015.6 |
| 20260506043222 | 57 | 248 | 13.0 | 25.0 | 0.00 | 0.00 | 0.00 | 32 | 1015.6 |
| 20260506043136 | 57 | 234 | 15.0 | 25.0 | 0.00 | 0.00 | 0.00 | 32 | 1015.6 |
| 20260506043018 | 57 | 360 | 14.0 | 25.0 | 0.00 | 0.00 | 0.00 | 32 | 1015.6 |
| 20260506042928 | 57 | 360 | 12.0 | 25.0 | 0.00 | 0.00 | 0.00 | 32 | 1015.6 |
| 20260506042838 | 57 | 360 | 12.0 | 25.0 | 0.00 | 0.00 | 0.00 | 33 | 1015.6 |
| 20260506042734 | 57 | 254 | 13.0 | 25.0 | 0.00 | 0.00 | 0.00 | 32 | 1015.6 |
| 20260506042616 | 57 | 360 | 14.0 | 25.0 | 0.00 | 0.00 | 0.00 | 33 | 1015.6 |
| 20260506042516 | 57 | 360 | 15.0 | 25.0 | 0.00 | 0.00 | 0.00 | 33 | 1015.6 |
| 20260506042446 | 57 | 360 | 13.0 | 22.0 | 0.00 | 0.00 | 0.00 | 33 | 1015.6 |
| 20260506042322 | 57 | 360 | 14.0 | 22.0 | 0.00 | 0.00 | 0.00 | 33 | 1015.6 |
| 20260506042218 | 57 | 360 | 14.0 | 22.0 | 0.00 | 0.00 | 0.00 | 33 | 1015.6 |
| 20260506042114 | 57 | 224 | 15.0 | 22.0 | 0.00 | 0.00 | 0.00 | 33 | 1015.6 |
| 20260506042026 | 57 | 360 | 15.0 | 22.0 | 0.00 | 0.00 | 0.00 | 33 | 1015.6 |
| 20260506041920 | 57 | 205 | 13.0 | 22.0 | 0.00 | 0.00 | 0.00 | 33 | 1015.6 |
| 20260506041830 | 57 | 360 | 12.0 | 21.0 | 0.00 | 0.00 | 0.00 | 34 | 1015.6 |
| 20260506041720 | 57 | 249 | 13.0 | 21.0 | 0.00 | 0.00 | 0.00 | 34 | 1015.6 |
| 20260506041633 | 57 | 223 | 14.0 | 21.0 | 0.00 | 0.00 | 0.00 | 34 | 1015.6 |
| 20260506041518 | 57 | 210 | 12.0 | 20.0 | 0.00 | 0.00 | 0.00 | 34 | 1015.4 |
| 20260506041428 | 57 | 250 | 11.0 | 20.0 | 0.00 | 0.00 | 0.00 | 35 | 1015.4 |
| 20260506041322 | 57 | 360 | 13.0 | 19.0 | 0.00 | 0.00 | 0.00 | 35 | 1015.4 |
| 20260506041215 | 57 | 360 | 13.0 | 19.0 | 0.00 | 0.00 | 0.00 | 36 | 1015.4 |
| 20260506041125 | 57 | 360 | 12.0 | 19.0 | 0.00 | 0.00 | 0.00 | 36 | 1015.4 |
| 20260506041015 | 57 | 240 | 12.0 | 23.0 | 0.00 | 0.00 | 0.00 | 36 | 1015.4 |
| 20260506040928 | 57 | 230 | 11.0 | 23.0 | 0.00 | 0.00 | 0.00 | 36 | 1015.4 |
| 20260506040822 | 57 | 360 | 10.0 | 23.0 | 0.00 | 0.00 | 0.00 | 36 | 1015.4 |
| 20260506040718 | 57 | 243 | 10.0 | 23.0 | 0.00 | 0.00 | 0.00 | 36 | 1015.4 |
| 20260506040631 | 57 | 360 | 10.0 | 23.0 | 0.00 | 0.00 | 0.00 | 37 | 1015.4 |
| 20260506040530 | 57 | 360 | 10.0 | 23.0 | 0.00 | 0.00 | 0.00 | 37 | 1015.4 |
| 20260506040420 | 57 | 239 | 12.0 | 23.0 | 0.00 | 0.00 | 0.00 | 36 | 1015.4 |
| 20260506040316 | 57 | 360 | 14.0 | 23.0 | 0.00 | 0.00 | 0.00 | 37 | 1015.4 |
| 20260506040230 | 57 | 227 | 15.0 | 23.0 | 0.00 | 0.00 | 0.00 | 37 | 1015.4 |
| 20260506040139 | 57 | 360 | 15.0 | 23.0 | 0.00 | 0.00 | 0.00 | 36 | 1015.4 |
| 20260506040017 | 57 | 227 | 12.0 | 21.0 | 0.00 | 0.00 | 0.00 | 36 | 1015.2 |
| 20260506035928 | 57 | 246 | 11.0 | 20.0 | 0.00 | 0.00 | 0.00 | 37 | 1015.2 |
| 20260506035827 | 57 | 360 | 11.0 | 20.0 | 0.00 | 0.00 | 0.00 | 37 | 1015.2 |
| 20260506035736 | 57 | 360 | 13.0 | 23.0 | 0.00 | 0.00 | 0.00 | 37 | 1015.2 |
| 20260506035616 | 57 | 360 | 14.0 | 23.0 | 0.00 | 0.00 | 0.00 | 37 | 1015.2 |
| 20260506035526 | 57 | 360 | 14.0 | 23.0 | 0.00 | 0.00 | 0.00 | 37 | 1015.2 |
| 20260506035416 | 57 | 360 | 12.0 | 23.0 | 0.00 | 0.00 | 0.00 | 36 | 1015.2 |
| 20260506035326 | 57 | 360 | 12.0 | 23.0 | 0.00 | 0.00 | 0.00 | 36 | 1015.2 |
| 20260506035216 | 57 | 360 | 13.0 | 23.0 | 0.00 | 0.00 | 0.00 | 36 | 1015.2 |
| 20260506035113 | 57 | 360 | 14.0 | 23.0 | 0.00 | 0.00 | 0.00 | 36 | 1015.2 |
| 20260506035023 | 57 | 360 | 15.0 | 23.0 | 0.00 | 0.00 | 0.00 | 36 | 1015.2 |
| 20260506034916 | 57 | 264 | 14.0 | 23.0 | 0.00 | 0.00 | 0.00 | 37 | 1015.2 |
| 20260506034832 | 57 | 263 | 13.0 | 23.0 | 0.00 | 0.00 | 0.00 | 37 | 1015.2 |
| 20260506034713 | 57 | 227 | 10.0 | 19.0 | 0.00 | 0.00 | 0.00 | 37 | 1015.2 |
| 20260506034626 | 57 | 234 | 11.0 | 19.0 | 0.00 | 0.00 | 0.00 | 37 | 1015.2 |
| 20260506034525 | 57 | 360 | 14.0 | 19.0 | 0.00 | 0.00 | 0.00 | 37 | 1015.1 |
| 20260506034435 | 57 | 225 | 15.0 | 19.0 | 0.00 | 0.00 | 0.00 | 38 | 1015.1 |
| 20260506034331 | 57 | 360 | 14.0 | 20.0 | 0.00 | 0.00 | 0.00 | 38 | 1015.1 |
| 20260506034221 | 57 | 360 | 13.0 | 25.0 | 0.00 | 0.00 | 0.00 | 39 | 1015.1 |
| 20260506034115 | 57 | 360 | 13.0 | 25.0 | 0.00 | 0.00 | 0.00 | 39 | 1015.1 |
| 20260506034025 | 57 | 360 | 13.0 | 25.0 | 0.00 | 0.00 | 0.00 | 39 | 1015.1 |
| 20260506033915 | 57 | 246 | 13.0 | 25.0 | 0.00 | 0.00 | 0.00 | 39 | 1015.1 |
| 20260506033828 | 57 | 360 | 12.0 | 25.0 | 0.00 | 0.00 | 0.00 | 39 | 1015.1 |
| 20260506033737 | 57 | 262 | 12.0 | 25.0 | 0.00 | 0.00 | 0.00 | 39 | 1015.1 |
| 20260506033620 | 57 | 360 | 13.0 | 25.0 | 0.00 | 0.00 | 0.00 | 39 | 1015.1 |
| 20260506033513 | 57 | 245 | 13.0 | 25.0 | 0.00 | 0.00 | 0.00 | 39 | 1015.1 |
| 20260506033430 | 57 | 285 | 13.0 | 25.0 | 0.00 | 0.00 | 0.00 | 39 | 1015.1 |
| 20260506033319 | 57 | 360 | 13.0 | 21.0 | 0.00 | 0.00 | 0.00 | 40 | 1015.1 |
| 20260506033219 | 57 | 360 | 14.0 | 21.0 | 0.00 | 0.00 | 0.00 | 40 | 1015.1 |
| 20260506033132 | 57 | 360 | 13.0 | 21.0 | 0.00 | 0.00 | 0.00 | 40 | 1015.1 |
| 20260506033015 | 57 | 360 | 13.0 | 21.0 | 0.00 | 0.00 | 0.00 | 40 | 1015.0 |
| 20260506032925 | 57 | 221 | 13.0 | 21.0 | 0.00 | 0.00 | 0.00 | 40 | 1015.0 |
| 20260506032818 | 57 | 219 | 14.0 | 23.0 | 0.00 | 0.00 | 0.00 | 40 | 1015.0 |
| 20260506032728 | 57 | 360 | 14.0 | 23.0 | 0.00 | 0.00 | 0.00 | 40 | 1015.0 |
| 20260506032618 | 57 | 232 | 13.0 | 23.0 | 0.00 | 0.00 | 0.00 | 40 | 1015.0 |
| 20260506032528 | 57 | 265 | 12.0 | 23.0 | 0.00 | 0.00 | 0.00 | 40 | 1015.0 |
| 20260506032442 | 57 | 237 | 11.0 | 23.0 | 0.00 | 0.00 | 0.00 | 40 | 1015.0 |
| 20260506032321 | 57 | 235 | 10.0 | 23.0 | 0.00 | 0.00 | 0.00 | 40 | 1015.0 |
| 20260506032231 | 57 | 360 | 13.0 | 23.0 | 0.00 | 0.00 | 0.00 | 40 | 1015.0 |
| 20260506032133 | 57 | 273 | 15.0 | 23.0 | 0.00 | 0.00 | 0.00 | 40 | 1015.0 |
| 20260506032023 | 57 | 360 | 17.0 | 23.0 | 0.00 | 0.00 | 0.00 | 40 | 1015.0 |
| 20260506031919 | 57 | 360 | 14.0 | 22.0 | 0.00 | 0.00 | 0.00 | 40 | 1015.0 |
| 20260506031832 | 57 | 360 | 12.0 | 22.0 | 0.00 | 0.00 | 0.00 | 40 | 1015.0 |
| 20260506031714 | 57 | 254 | 11.0 | 22.0 | 0.00 | 0.00 | 0.00 | 40 | 1015.0 |
| 20260506031624 | 57 | 228 | 11.0 | 22.0 | 0.00 | 0.00 | 0.00 | 40 | 1015.0 |
| 20260506031545 | 57 | 360 | 11.0 | 22.0 | 0.00 | 0.00 | 0.00 | 40 | 1015.0 |
| 20260506031422 | 57 | 231 | 14.0 | 22.0 | 0.00 | 0.00 | 0.00 | 40 | 1015.0 |
| 20260506031321 | 57 | 360 | 14.0 | 22.0 | 0.00 | 0.00 | 0.00 | 40 | 1015.0 |
| 20260506031231 | 57 | 360 | 13.0 | 19.0 | 0.00 | 0.00 | 0.00 | 40 | 1015.0 |
| 20260506031127 | 57 | 211 | 13.0 | 22.0 | 0.00 | 0.00 | 0.00 | 40 | 1015.0 |
| 20260506031017 | 57 | 360 | 13.0 | 22.0 | 0.00 | 0.00 | 0.00 | 40 | 1015.0 |
| 20260506030927 | 57 | 360 | 10.0 | 22.0 | 0.00 | 0.00 | 0.00 | 40 | 1015.0 |
| 20260506030826 | 57 | 360 | 10.0 | 22.0 | 0.00 | 0.00 | 0.00 | 40 | 1015.0 |
| 20260506030720 | 57 | 360 | 10.0 | 22.0 | 0.00 | 0.00 | 0.00 | 40 | 1015.0 |
| 20260506030630 | 57 | 242 | 10.0 | 22.0 | 0.00 | 0.00 | 0.00 | 40 | 1015.0 |
| 20260506030526 | 57 | 360 | 11.0 | 22.0 | 0.00 | 0.00 | 0.00 | 40 | 1015.0 |
| 20260506030416 | 57 | 232 | 14.0 | 22.0 | 0.00 | 0.00 | 0.00 | 40 | 1015.0 |
| 20260506030329 | 57 | 246 | 16.0 | 22.0 | 0.00 | 0.00 | 0.00 | 40 | 1015.0 |
| 20260506030219 | 57 | 360 | 14.0 | 22.0 | 0.00 | 0.00 | 0.00 | 40 | 1015.0 |
| 20260506030127 | 57 | 360 | 14.0 | 22.0 | 0.00 | 0.00 | 0.00 | 40 | 1015.0 |
| 20260506030029 | 57 | 251 | 14.0 | 22.0 | 0.00 | 0.00 | 0.00 | 40 | 1014.9 |
| 20260506025945 | 57 | 360 | 12.0 | 19.0 | 0.00 | 0.00 | 0.00 | 40 | 1014.9 |
| 20260506025820 | 57 | 360 | 9.0 | 17.0 | 0.00 | 0.00 | 0.00 | 40 | 1014.9 |
| 20260506025731 | 58 | 258 | 9.0 | 19.0 | 0.00 | 0.00 | 0.00 | 40 | 1014.9 |
| 20260506025625 | 58 | 245 | 11.0 | 19.0 | 0.00 | 0.00 | 0.00 | 40 | 1014.9 |
| 20260506025517 | 58 | 240 | 10.0 | 19.0 | 0.00 | 0.00 | 0.00 | 39 | 1014.9 |
| 20260506025427 | 58 | 360 | 8.0 | 20.0 | 0.00 | 0.00 | 0.00 | 39 | 1014.9 |
| 20260506025330 | 58 | 360 | 10.0 | 20.0 | 0.00 | 0.00 | 0.00 | 39 | 1014.9 |
| 20260506025219 | 58 | 360 | 11.0 | 20.0 | 0.00 | 0.00 | 0.00 | 39 | 1014.9 |
| 20260506025116 | 58 | 254 | 10.0 | 20.0 | 0.00 | 0.00 | 0.00 | 39 | 1014.9 |
| 20260506025029 | 58 | 360 | 9.0 | 20.0 | 0.00 | 0.00 | 0.00 | 39 | 1014.9 |
| 20260506024919 | 58 | 360 | 9.0 | 20.0 | 0.00 | 0.00 | 0.00 | 39 | 1014.9 |
| 20260506024832 | 58 | 221 | 8.0 | 24.0 | 0.00 | 0.00 | 0.00 | 39 | 1014.9 |
| 20260506024713 | 58 | 280 | 13.0 | 24.0 | 0.00 | 0.00 | 0.00 | 39 | 1014.9 |
| 20260506024622 | 58 | 260 | 13.0 | 24.0 | 0.00 | 0.00 | 0.00 | 39 | 1014.9 |
| 20260506024528 | 58 | 360 | 11.0 | 24.0 | 0.00 | 0.00 | 0.00 | 39 | 1014.7 |
| 20260506024418 | 58 | 360 | 8.0 | 24.0 | 0.00 | 0.00 | 0.00 | 38 | 1014.7 |
| 20260506024328 | 58 | 239 | 8.0 | 24.0 | 0.00 | 0.00 | 0.00 | 38 | 1014.7 |
| 20260506024238 | 58 | 291 | 13.0 | 24.0 | 0.00 | 0.00 | 0.00 | 38 | 1014.7 |
| 20260506024134 | 58 | 234 | 14.0 | 23.0 | 0.00 | 0.00 | 0.00 | 38 | 1014.7 |
| 20260506024030 | 58 | 360 | 13.0 | 23.0 | 0.00 | 0.00 | 0.00 | 39 | 1014.7 |
| 20260506023924 | 58 | 188 | 10.0 | 21.0 | 0.00 | 0.00 | 0.00 | 39 | 1014.7 |
| 20260506023814 | 58 | 238 | 13.0 | 21.0 | 0.00 | 0.00 | 0.00 | 39 | 1014.7 |
| 20260506023724 | 58 | 360 | 15.0 | 21.0 | 0.00 | 0.00 | 0.00 | 39 | 1014.7 |
| 20260506023620 | 58 | 360 | 15.0 | 25.0 | 0.00 | 0.00 | 0.00 | 39 | 1014.7 |
| 20260506023529 | 58 | 360 | 13.0 | 25.0 | 0.00 | 0.00 | 0.00 | 39 | 1014.7 |
| 20260506023423 | 58 | 235 | 11.0 | 25.0 | 0.00 | 0.00 | 0.00 | 39 | 1014.7 |
| 20260506023320 | 58 | 360 | 12.0 | 25.0 | 0.00 | 0.00 | 0.00 | 39 | 1014.7 |
| 20260506023221 | 58 | 268 | 11.0 | 25.0 | 0.00 | 0.00 | 0.00 | 39 | 1014.7 |
| 20260506023130 | 58 | 258 | 12.0 | 25.0 | 0.00 | 0.00 | 0.00 | 39 | 1014.7 |
| 20260506023032 | 58 | 268 | 14.0 | 25.0 | 0.00 | 0.00 | 0.00 | 39 | 1014.7 |
| 20260506022942 | 58 | 270 | 18.0 | 25.0 | 0.00 | 0.00 | 0.00 | 39 | 1014.7 |
| 20260506022842 | 58 | 360 | 16.0 | 25.0 | 0.00 | 0.00 | 0.00 | 39 | 1014.7 |
| 20260506022738 | 58 | 238 | 12.0 | 25.0 | 0.00 | 0.00 | 0.00 | 39 | 1014.7 |
| 20260506022614 | 58 | 242 | 10.0 | 19.0 | 0.00 | 0.00 | 0.00 | 39 | 1014.7 |
| 20260506022524 | 58 | 260 | 10.0 | 19.0 | 0.00 | 0.00 | 0.00 | 39 | 1014.7 |
| 20260506022417 | 58 | 263 | 13.0 | 19.0 | 0.00 | 0.00 | 0.00 | 39 | 1014.7 |
| 20260506022316 | 58 | 223 | 14.0 | 22.0 | 0.00 | 0.00 | 0.00 | 39 | 1014.7 |
| 20260506022233 | 58 | 360 | 13.0 | 22.0 | 0.00 | 0.00 | 0.00 | 39 | 1014.7 |
| 20260506022129 | 58 | 360 | 13.0 | 22.0 | 0.00 | 0.00 | 0.00 | 39 | 1014.7 |
| 20260506022019 | 58 | 239 | 12.0 | 22.0 | 0.00 | 0.00 | 0.00 | 39 | 1014.7 |
| 20260506021929 | 58 | 229 | 12.0 | 22.0 | 0.00 | 0.00 | 0.00 | 39 | 1014.7 |
| 20260506021819 | 58 | 360 | 12.0 | 22.0 | 0.00 | 0.00 | 0.00 | 39 | 1014.7 |
| 20260506021716 | 58 | 227 | 12.0 | 22.0 | 0.00 | 0.00 | 0.00 | 39 | 1014.7 |
| 20260506021636 | 58 | 360 | 13.0 | 22.0 | 0.00 | 0.00 | 0.00 | 39 | 1014.7 |
| 20260506021518 | 58 | 244 | 13.0 | 22.0 | 0.00 | 0.00 | 0.00 | 39 | 1014.6 |
| 20260506021427 | 58 | 235 | 13.0 | 22.0 | 0.00 | 0.00 | 0.00 | 39 | 1014.6 |
| 20260506021317 | 58 | 360 | 12.0 | 22.0 | 0.00 | 0.00 | 0.00 | 39 | 1014.6 |
| 20260506021231 | 58 | 360 | 13.0 | 22.0 | 0.00 | 0.00 | 0.00 | 39 | 1014.6 |
| 20260506021128 | 58 | 360 | 15.0 | 22.0 | 0.00 | 0.00 | 0.00 | 39 | 1014.6 |
| 20260506021023 | 58 | 259 | 15.0 | 22.0 | 0.00 | 0.00 | 0.00 | 39 | 1014.6 |
| 20260506020920 | 58 | 360 | 14.0 | 22.0 | 0.00 | 0.00 | 0.00 | 39 | 1014.6 |
| 20260506020829 | 58 | 360 | 12.0 | 20.0 | 0.00 | 0.00 | 0.00 | 39 | 1014.6 |
| 20260506020719 | 58 | 227 | 13.0 | 20.0 | 0.00 | 0.00 | 0.00 | 39 | 1014.6 |
| 20260506020613 | 58 | 360 | 15.0 | 20.0 | 0.00 | 0.00 | 0.00 | 39 | 1014.6 |
| 20260506020529 | 58 | 213 | 15.0 | 20.0 | 0.00 | 0.00 | 0.00 | 39 | 1014.6 |
| 20260506020419 | 58 | 360 | 12.0 | 20.0 | 0.00 | 0.00 | 0.00 | 39 | 1014.6 |
| 20260506020329 | 58 | 254 | 11.0 | 16.0 | 0.00 | 0.00 | 0.00 | 40 | 1014.6 |
| 20260506020210 | 58 | 261 | 11.0 | 16.0 | 0.00 | 0.00 | 0.00 | 40 | 1014.6 |
| 20260506020126 | 58 | 360 | 11.0 | 16.0 | 0.00 | 0.00 | 0.00 | 40 | 1014.6 |
| 20260506020025 | 58 | 360 | 10.0 | 16.0 | 0.00 | 0.00 | 0.00 | 40 | 1014.4 |
| 20260506015918 | 58 | 225 | 9.0 | 16.0 | 0.00 | 0.00 | 0.00 | 40 | 1014.4 |
| 20260506015828 | 58 | 259 | 10.0 | 16.0 | 0.00 | 0.00 | 0.00 | 39 | 1014.4 |
| 20260506015723 | 58 | 222 | 10.0 | 20.0 | 0.00 | 0.00 | 0.00 | 40 | 1014.4 |
| 20260506015614 | 58 | 360 | 11.0 | 20.0 | 0.00 | 0.00 | 0.00 | 39 | 1014.4 |
| 20260506015528 | 58 | 242 | 10.0 | 20.0 | 0.00 | 0.00 | 0.00 | 39 | 1014.4 |
| 20260506015424 | 58 | 240 | 9.0 | 20.0 | 0.00 | 0.00 | 0.00 | 39 | 1014.4 |
| 20260506015316 | 58 | 222 | 11.0 | 20.0 | 0.00 | 0.00 | 0.00 | 39 | 1014.4 |
| 20260506015226 | 58 | 360 | 11.0 | 20.0 | 0.00 | 0.00 | 0.00 | 39 | 1014.4 |
| 20260506015136 | 58 | 360 | 13.0 | 20.0 | 0.00 | 0.00 | 0.00 | 39 | 1014.4 |
| 20260506015016 | 58 | 246 | 13.0 | 20.0 | 0.00 | 0.00 | 0.00 | 39 | 1014.4 |
| 20260506014946 | 58 | 245 | 14.0 | 20.0 | 0.00 | 0.00 | 0.00 | 39 | 1014.4 |
| 20260506014822 | 58 | 235 | 13.0 | 19.0 | 0.00 | 0.00 | 0.00 | 39 | 1014.4 |
| 20260506014719 | 58 | 244 | 10.0 | 19.0 | 0.00 | 0.00 | 0.00 | 39 | 1014.4 |
| 20260506014642 | 58 | 360 | 9.0 | 19.0 | 0.00 | 0.00 | 0.00 | 39 | 1014.4 |
| 20260506014528 | 58 | 218 | 10.0 | 19.0 | 0.00 | 0.00 | 0.00 | 39 | 1014.5 |
| 20260506014421 | 58 | 213 | 11.0 | 19.0 | 0.00 | 0.00 | 0.00 | 39 | 1014.5 |
| 20260506014331 | 58 | 217 | 11.0 | 19.0 | 0.00 | 0.00 | 0.00 | 39 | 1014.5 |
| 20260506014221 | 58 | 231 | 12.0 | 19.0 | 0.00 | 0.00 | 0.00 | 39 | 1014.5 |
| 20260506014114 | 59 | 217 | 14.0 | 19.0 | 0.00 | 0.00 | 0.00 | 39 | 1014.5 |
| 20260506014024 | 59 | 360 | 13.0 | 19.0 | 0.00 | 0.00 | 0.00 | 39 | 1014.5 |
| 20260506013920 | 59 | 360 | 11.0 | 19.0 | 0.00 | 0.00 | 0.00 | 39 | 1014.5 |
| 20260506013814 | 59 | 234 | 11.0 | 17.0 | 0.00 | 0.00 | 0.00 | 39 | 1014.5 |
| 20260506013724 | 59 | 360 | 11.0 | 16.0 | 0.00 | 0.00 | 0.00 | 39 | 1014.5 |
| 20260506013617 | 59 | 360 | 11.0 | 21.0 | 0.00 | 0.00 | 0.00 | 39 | 1014.5 |
| 20260506013547 | 59 | 360 | 11.0 | 21.0 | 0.00 | 0.00 | 0.00 | 39 | 1014.5 |
| 20260506013443 | 59 | 238 | 11.0 | 21.0 | 0.00 | 0.00 | 0.00 | 39 | 1014.5 |
| 20260506013339 | 59 | 360 | 10.0 | 21.0 | 0.00 | 0.00 | 0.00 | 39 | 1014.5 |
| 20260506013219 | 59 | 220 | 10.0 | 21.0 | 0.00 | 0.00 | 0.00 | 39 | 1014.5 |
| 20260506013140 | 59 | 244 | 11.0 | 21.0 | 0.00 | 0.00 | 0.00 | 39 | 1014.5 |
| 20260506013025 | 59 | 223 | 11.0 | 21.0 | 0.00 | 0.00 | 0.00 | 39 | 1014.3 |
| 20260506012935 | 59 | 239 | 11.0 | 21.0 | 0.00 | 0.00 | 0.00 | 39 | 1014.3 |
| 20260506012831 | 59 | 207 | 13.0 | 21.0 | 0.00 | 0.00 | 0.00 | 39 | 1014.3 |
| 20260506012740 | 59 | 360 | 13.0 | 21.0 | 0.00 | 0.00 | 0.00 | 38 | 1014.3 |
| 20260506012640 | 59 | 216 | 13.0 | 19.0 | 0.00 | 0.00 | 0.00 | 39 | 1014.3 |
| 20260506012536 | 59 | 205 | 13.0 | 25.0 | 0.00 | 0.00 | 0.00 | 39 | 1014.3 |
| 20260506012432 | 59 | 225 | 13.0 | 25.0 | 0.00 | 0.00 | 0.00 | 39 | 1014.3 |
| 20260506012342 | 59 | 239 | 10.0 | 25.0 | 0.00 | 0.00 | 0.00 | 39 | 1014.3 |
| 20260506012238 | 59 | 250 | 10.0 | 25.0 | 0.00 | 0.00 | 0.00 | 39 | 1014.3 |
| 20260506012117 | 59 | 239 | 12.0 | 25.0 | 0.00 | 0.00 | 0.00 | 39 | 1014.3 |
| 20260506012032 | 59 | 360 | 12.0 | 25.0 | 0.00 | 0.00 | 0.00 | 39 | 1014.3 |
| 20260506011928 | 59 | 360 | 13.0 | 25.0 | 0.00 | 0.00 | 0.00 | 39 | 1014.3 |
| 20260506011824 | 59 | 360 | 13.0 | 25.0 | 0.00 | 0.00 | 0.00 | 39 | 1014.3 |
| 20260506011713 | 59 | 360 | 15.0 | 25.0 | 0.00 | 0.00 | 0.00 | 39 | 1014.3 |
| 20260506011633 | 59 | 238 | 14.0 | 22.0 | 0.00 | 0.00 | 0.00 | 39 | 1014.3 |
| 20260506011516 | 58 | 227 | 12.0 | 22.0 | 0.00 | 0.00 | 0.00 | 38 | 1014.3 |
| 20260506011426 | 59 | 219 | 11.0 | 19.0 | 0.00 | 0.00 | 0.00 | 38 | 1014.3 |
| 20260506011316 | 59 | 227 | 10.0 | 26.0 | 0.00 | 0.00 | 0.00 | 38 | 1014.3 |
| 20260506011229 | 59 | 224 | 10.0 | 26.0 | 0.00 | 0.00 | 0.00 | 39 | 1014.3 |
| 20260506011119 | 59 | 227 | 11.0 | 26.0 | 0.00 | 0.00 | 0.00 | 39 | 1014.3 |
| 20260506011015 | 59 | 360 | 12.0 | 26.0 | 0.00 | 0.00 | 0.00 | 38 | 1014.3 |
| 20260506010929 | 59 | 236 | 11.0 | 26.0 | 0.00 | 0.00 | 0.00 | 38 | 1014.3 |
| 20260506010839 | 59 | 248 | 11.0 | 26.0 | 0.00 | 0.00 | 0.00 | 38 | 1014.3 |
| 20260506010715 | 59 | 360 | 14.0 | 26.0 | 0.00 | 0.00 | 0.00 | 38 | 1014.3 |
| 20260506010628 | 59 | 360 | 16.0 | 26.0 | 0.00 | 0.00 | 0.00 | 38 | 1014.3 |
| 20260506010518 | 59 | 360 | 15.0 | 26.0 | 0.00 | 0.00 | 0.00 | 38 | 1014.3 |
| 20260506010418 | 59 | 227 | 14.0 | 23.0 | 0.00 | 0.00 | 0.00 | 37 | 1014.3 |
| 20260506010327 | 59 | 360 | 16.0 | 26.0 | 0.00 | 0.00 | 0.00 | 37 | 1014.3 |
| 20260506010229 | 59 | 235 | 17.0 | 28.0 | 0.00 | 0.00 | 0.00 | 37 | 1014.3 |
| 20260506010131 | 59 | 240 | 15.0 | 31.0 | 0.00 | 0.00 | 0.00 | 37 | 1014.3 |
| 20260506010016 | 59 | 360 | 12.0 | 31.0 | 0.00 | 0.00 | 0.00 | 37 | 1014.3 |
| 20260506005925 | 59 | 360 | 13.0 | 31.0 | 0.00 | 0.00 | 0.00 | 37 | 1014.3 |
| 20260506005819 | 59 | 221 | 16.0 | 31.0 | 0.00 | 0.00 | 0.00 | 37 | 1014.3 |
| 20260506005732 | 59 | 217 | 18.0 | 31.0 | 0.00 | 0.00 | 0.00 | 37 | 1014.3 |
| 20260506005622 | 59 | 360 | 17.0 | 31.0 | 0.00 | 0.00 | 0.00 | 37 | 1014.3 |
| 20260506005518 | 59 | 360 | 19.0 | 31.0 | 0.00 | 0.00 | 0.00 | 37 | 1014.3 |
| 20260506005428 | 59 | 244 | 22.0 | 31.0 | 0.00 | 0.00 | 0.00 | 37 | 1014.3 |
| 20260506005321 | 59 | 261 | 23.0 | 31.0 | 0.00 | 0.00 | 0.00 | 36 | 1014.3 |
| 20260506005215 | 59 | 238 | 22.0 | 30.0 | 0.00 | 0.00 | 0.00 | 36 | 1014.3 |
| 20260506005145 | 59 | 360 | 22.0 | 33.0 | 0.00 | 0.00 | 0.00 | 37 | 1014.3 |
| 20260506005041 | 59 | 360 | 21.0 | 33.0 | 0.00 | 0.00 | 0.00 | 37 | 1014.3 |
| 20260506004917 | 59 | 238 | 18.0 | 33.0 | 0.00 | 0.00 | 0.00 | 37 | 1014.3 |
| 20260506004830 | 59 | 360 | 18.0 | 33.0 | 0.00 | 0.00 | 0.00 | 37 | 1014.3 |
| 20260506004718 | 59 | 360 | 16.0 | 33.0 | 0.00 | 0.00 | 0.00 | 37 | 1014.3 |
| 20260506004651 | 59 | 360 | 18.0 | 33.0 | 0.00 | 0.00 | 0.00 | 37 | 1014.3 |
| 20260506004519 | 59 | 360 | 22.0 | 33.0 | 0.00 | 0.00 | 0.00 | 37 | 1014.1 |
| 20260506004429 | 59 | 220 | 19.0 | 33.0 | 0.00 | 0.00 | 0.00 | 37 | 1014.1 |
| 20260506004324 | 59 | 239 | 15.0 | 33.0 | 0.00 | 0.00 | 0.00 | 37 | 1014.1 |
| 20260506004218 | 59 | 244 | 13.0 | 27.0 | 0.00 | 0.00 | 0.00 | 37 | 1014.1 |
| 20260506004112 | 59 | 230 | 15.0 | 27.0 | 0.00 | 0.00 | 0.00 | 37 | 1014.1 |
| 20260506004031 | 59 | 237 | 18.0 | 27.0 | 0.00 | 0.00 | 0.00 | 37 | 1014.1 |
| 20260506003927 | 59 | 283 | 19.0 | 27.0 | 0.00 | 0.00 | 0.00 | 37 | 1014.1 |
| 20260506003816 | 59 | 252 | 18.0 | 28.0 | 0.00 | 0.00 | 0.00 | 37 | 1014.1 |
| 20260506003726 | 59 | 240 | 16.0 | 31.0 | 0.00 | 0.00 | 0.00 | 37 | 1014.1 |
| 20260506003620 | 59 | 360 | 15.0 | 31.0 | 0.00 | 0.00 | 0.00 | 37 | 1014.1 |
| 20260506003510 | 59 | 360 | 15.0 | 31.0 | 0.00 | 0.00 | 0.00 | 37 | 1014.1 |
| 20260506003423 | 59 | 360 | 14.0 | 31.0 | 0.00 | 0.00 | 0.00 | 37 | 1014.1 |
| 20260506003313 | 59 | 244 | 15.0 | 34.0 | 0.00 | 0.00 | 0.00 | 37 | 1014.1 |
| 20260506003213 | 59 | 234 | 20.0 | 37.0 | 0.00 | 0.00 | 0.00 | 37 | 1014.1 |
| 20260506003146 | 59 | 360 | 21.0 | 37.0 | 0.00 | 0.00 | 0.00 | 37 | 1014.1 |
| 20260506003015 | 59 | 360 | 20.0 | 37.0 | 0.00 | 0.00 | 0.00 | 36 | 1013.9 |
| 20260506002931 | 59 | 236 | 22.0 | 37.0 | 0.00 | 0.00 | 0.00 | 36 | 1013.9 |
| 20260506002841 | 59 | 224 | 22.0 | 37.0 | 0.00 | 0.00 | 0.00 | 36 | 1013.9 |
| 20260506002717 | 59 | 250 | 21.0 | 37.0 | 0.00 | 0.00 | 0.00 | 36 | 1013.9 |
| 20260506002627 | 59 | 211 | 22.0 | 37.0 | 0.00 | 0.00 | 0.00 | 36 | 1013.9 |
| 20260506002521 | 59 | 238 | 22.0 | 38.0 | 0.00 | 0.00 | 0.00 | 36 | 1013.9 |
| 20260506002414 | 59 | 360 | 22.0 | 38.0 | 0.00 | 0.00 | 0.00 | 36 | 1013.9 |
| 20260506002324 | 59 | 360 | 23.0 | 38.0 | 0.00 | 0.00 | 0.00 | 36 | 1013.9 |
| 20260506002214 | 59 | 360 | 23.0 | 38.0 | 0.00 | 0.00 | 0.00 | 37 | 1013.9 |
| 20260506002124 | 59 | 229 | 24.0 | 38.0 | 0.00 | 0.00 | 0.00 | 37 | 1013.9 |
| 20260506002020 | 59 | 360 | 24.0 | 38.0 | 0.00 | 0.00 | 0.00 | 36 | 1013.9 |
| 20260506001913 | 59 | 237 | 26.0 | 38.0 | 0.00 | 0.00 | 0.00 | 37 | 1013.9 |
| 20260506001830 | 59 | 360 | 27.0 | 38.0 | 0.00 | 0.00 | 0.00 | 36 | 1013.9 |
| 20260506001730 | 59 | 360 | 27.0 | 38.0 | 0.00 | 0.00 | 0.00 | 37 | 1013.9 |
| 20260506001628 | 59 | 360 | 26.0 | 37.0 | 0.00 | 0.00 | 0.00 | 37 | 1013.9 |
| 20260506001527 | 59 | 360 | 27.0 | 37.0 | 0.00 | 0.00 | 0.00 | 38 | 1014.3 |
| 20260506001421 | 59 | 360 | 26.0 | 34.0 | 0.00 | 0.00 | 0.00 | 38 | 1014.3 |
| 20260506001331 | 59 | 360 | 18.0 | 34.0 | 0.00 | 0.00 | 0.00 | 39 | 1014.3 |
| 20260506001227 | 59 | 360 | 14.0 | 27.0 | 0.00 | 0.00 | 0.00 | 40 | 1014.3 |
| 20260506001123 | 59 | 360 | 11.0 | 19.0 | 0.00 | 0.00 | 0.00 | 42 | 1014.3 |
| 20260506001016 | 59 | 247 | 11.0 | 22.0 | 0.00 | 0.00 | 0.00 | 43 | 1014.3 |
| 20260506000926 | 59 | 227 | 12.0 | 22.0 | 0.00 | 0.00 | 0.00 | 43 | 1014.3 |
| 20260506000820 | 59 | 225 | 13.0 | 22.0 | 0.00 | 0.00 | 0.00 | 43 | 1014.3 |
| 20260506000730 | 59 | 360 | 13.0 | 22.0 | 0.00 | 0.00 | 0.00 | 43 | 1014.3 |
| 20260506000623 | 59 | 245 | 12.0 | 22.0 | 0.00 | 0.00 | 0.00 | 43 | 1014.3 |
| 20260506000519 | 59 | 360 | 11.0 | 29.0 | 0.00 | 0.00 | 0.00 | 43 | 1014.3 |
| 20260506000418 | 59 | 233 | 14.0 | 29.0 | 0.00 | 0.00 | 0.00 | 43 | 1014.3 |
| 20260506000315 | 59 | 360 | 14.0 | 29.0 | 0.00 | 0.00 | 0.00 | 43 | 1014.3 |
| 20260506000216 | 59 | 360 | 14.0 | 29.0 | 0.00 | 0.00 | 0.00 | 43 | 1014.3 |
| 20260506000125 | 59 | 360 | 14.0 | 29.0 | 0.00 | 0.00 | 0.00 | 42 | 1014.3 |
| 20260506000030 | 59 | 224 | 16.0 | 29.0 | 0.00 | 0.00 | 0.00 | 42 | 1014.3 |
| 20260505235923 | 59 | 360 | 18.0 | 29.0 | 0.00 | 0.00 | 0.00 | 43 | 1014.3 |
| 20260505235833 | 59 | 360 | 18.0 | 29.0 | 0.00 | 0.00 | 0.00 | 42 | 1014.3 |
| 20260505235732 | 59 | 360 | 18.0 | 29.0 | 0.00 | 0.00 | 0.00 | 42 | 1014.3 |
| 20260505235628 | 59 | 360 | 17.0 | 25.0 | 0.00 | 0.00 | 0.00 | 42 | 1014.3 |
| 20260505235521 | 59 | 360 | 16.0 | 25.0 | 0.00 | 0.00 | 0.00 | 42 | 1014.3 |
| 20260505235418 | 59 | 360 | 15.0 | 26.0 | 0.00 | 0.00 | 0.00 | 43 | 1014.3 |
| 20260505235327 | 59 | 221 | 13.0 | 26.0 | 0.00 | 0.00 | 0.00 | 43 | 1014.3 |
| 20260505235223 | 59 | 211 | 14.0 | 26.0 | 0.00 | 0.00 | 0.00 | 43 | 1014.3 |
| 20260505235117 | 59 | 249 | 12.0 | 26.0 | 0.00 | 0.00 | 0.00 | 43 | 1014.3 |
| 20260505235013 | 58 | 360 | 14.0 | 26.0 | 0.00 | 0.00 | 0.00 | 43 | 1014.3 |
| 20260505234923 | 58 | 360 | 14.0 | 29.0 | 0.00 | 0.00 | 0.00 | 43 | 1014.3 |
| 20260505234816 | 58 | 360 | 17.0 | 29.0 | 0.00 | 0.00 | 0.00 | 43 | 1014.3 |
| 20260505234720 | 58 | 360 | 18.0 | 29.0 | 0.00 | 0.00 | 0.00 | 43 | 1014.3 |
| 20260505234634 | 58 | 360 | 19.0 | 29.0 | 0.00 | 0.00 | 0.00 | 43 | 1014.3 |
| 20260505234536 | 58 | 360 | 17.0 | 29.0 | 0.00 | 0.00 | 0.00 | 43 | 1014.3 |
| 20260505234432 | 58 | 360 | 16.0 | 29.0 | 0.00 | 0.00 | 0.00 | 44 | 1014.3 |
| 20260505234322 | 58 | 204 | 18.0 | 29.0 | 0.00 | 0.00 | 0.00 | 44 | 1014.3 |
| 20260505234218 | 58 | 360 | 18.0 | 29.0 | 0.00 | 0.00 | 0.00 | 44 | 1014.3 |
| 20260505234128 | 58 | 360 | 17.0 | 29.0 | 0.00 | 0.00 | 0.00 | 44 | 1014.3 |
| 20260505234028 | 58 | 238 | 15.0 | 25.0 | 0.00 | 0.00 | 0.00 | 44 | 1014.3 |
| 20260505233937 | 58 | 229 | 14.0 | 24.0 | 0.00 | 0.00 | 0.00 | 44 | 1014.3 |
| 20260505233816 | 58 | 220 | 12.0 | 24.0 | 0.00 | 0.00 | 0.00 | 45 | 1014.3 |
| 20260505233726 | 58 | 220 | 10.0 | 24.0 | 0.00 | 0.00 | 0.00 | 45 | 1014.3 |
| 20260505233636 | 58 | 206 | 9.0 | 24.0 | 0.00 | 0.00 | 0.00 | 45 | 1014.3 |
| 20260505233532 | 58 | 360 | 13.0 | 24.0 | 0.00 | 0.00 | 0.00 | 44 | 1014.3 |
| 20260505233433 | 58 | 225 | 16.0 | 24.0 | 0.00 | 0.00 | 0.00 | 44 | 1014.3 |
| 20260505233322 | 58 | 360 | 17.0 | 24.0 | 0.00 | 0.00 | 0.00 | 44 | 1014.3 |
| 20260505233215 | 58 | 228 | 16.0 | 24.0 | 0.00 | 0.00 | 0.00 | 44 | 1014.3 |
| 20260505233139 | 58 | 360 | 15.0 | 24.0 | 0.00 | 0.00 | 0.00 | 45 | 1014.3 |
| 20260505233038 | 58 | 360 | 16.0 | 23.0 | 0.00 | 0.00 | 0.00 | 44 | 1014.3 |
| 20260505232920 | 58 | 213 | 17.0 | 23.0 | 0.00 | 0.00 | 0.00 | 44 | 1014.3 |
| 20260505232820 | 58 | 227 | 16.0 | 24.0 | 0.00 | 0.00 | 0.00 | 44 | 1014.3 |
| 20260505232716 | 58 | 360 | 16.0 | 24.0 | 0.00 | 0.00 | 0.00 | 44 | 1014.3 |
| 20260505232629 | 59 | 227 | 15.0 | 24.0 | 0.00 | 0.00 | 0.00 | 45 | 1014.3 |
| 20260505232519 | 59 | 236 | 14.0 | 24.0 | 0.00 | 0.00 | 0.00 | 44 | 1014.3 |
| 20260505232429 | 59 | 360 | 13.0 | 20.0 | 0.00 | 0.00 | 0.00 | 44 | 1014.3 |
| 20260505232323 | 59 | 243 | 12.0 | 20.0 | 0.00 | 0.00 | 0.00 | 45 | 1014.3 |
| 20260505232219 | 59 | 227 | 13.0 | 22.0 | 0.00 | 0.00 | 0.00 | 45 | 1014.3 |
| 20260505232111 | 59 | 215 | 13.0 | 22.0 | 0.00 | 0.00 | 0.00 | 44 | 1014.3 |
| 20260505232025 | 59 | 224 | 12.0 | 25.0 | 0.00 | 0.00 | 0.00 | 45 | 1014.3 |
| 20260505231923 | 59 | 240 | 11.0 | 25.0 | 0.00 | 0.00 | 0.00 | 45 | 1014.3 |
| 20260505231820 | 59 | 258 | 11.0 | 25.0 | 0.00 | 0.00 | 0.00 | 45 | 1014.3 |
| 20260505231713 | 59 | 360 | 11.0 | 25.0 | 0.00 | 0.00 | 0.00 | 45 | 1014.3 |
| 20260505231636 | 59 | 360 | 11.0 | 25.0 | 0.00 | 0.00 | 0.00 | 45 | 1014.3 |
| 20260505231515 | 59 | 259 | 12.0 | 25.0 | 0.00 | 0.00 | 0.00 | 45 | 1014.3 |
| 20260505231425 | 59 | 219 | 15.0 | 25.0 | 0.00 | 0.00 | 0.00 | 44 | 1014.3 |
| 20260505231315 | 59 | 243 | 18.0 | 25.0 | 0.00 | 0.00 | 0.00 | 44 | 1014.3 |
| 20260505231215 | 59 | 242 | 17.0 | 25.0 | 0.00 | 0.00 | 0.00 | 44 | 1014.3 |
| 20260505231145 | 59 | 360 | 15.0 | 25.0 | 0.00 | 0.00 | 0.00 | 44 | 1014.3 |
| 20260505231021 | 59 | 360 | 12.0 | 25.0 | 0.00 | 0.00 | 0.00 | 44 | 1014.3 |
| 20260505230914 | 59 | 360 | 10.0 | 30.0 | 0.00 | 0.00 | 0.00 | 45 | 1014.3 |
| 20260505230824 | 59 | 241 | 9.0 | 30.0 | 0.00 | 0.00 | 0.00 | 45 | 1014.3 |
| 20260505230720 | 59 | 263 | 8.0 | 30.0 | 0.00 | 0.00 | 0.00 | 45 | 1014.3 |
| 20260505230614 | 59 | 249 | 10.0 | 30.0 | 0.00 | 0.00 | 0.00 | 45 | 1014.3 |
| 20260505230524 | 59 | 242 | 11.0 | 30.0 | 0.00 | 0.00 | 0.00 | 44 | 1014.3 |
| 20260505230417 | 59 | 207 | 12.0 | 30.0 | 0.00 | 0.00 | 0.00 | 44 | 1014.3 |
| 20260505230327 | 59 | 360 | 13.0 | 30.0 | 0.00 | 0.00 | 0.00 | 45 | 1014.3 |
| 20260505230217 | 59 | 360 | 17.0 | 30.0 | 0.00 | 0.00 | 0.00 | 45 | 1014.3 |
| 20260505230144 | 59 | 360 | 19.0 | 30.0 | 0.00 | 0.00 | 0.00 | 44 | 1014.3 |
| 20260505230028 | 59 | 360 | 16.0 | 30.0 | 0.00 | 0.00 | 0.00 | 45 | 1014.4 |
| 20260505225938 | 59 | 360 | 10.0 | 23.0 | 0.00 | 0.00 | 0.00 | 45 | 1014.4 |
| 20260505225814 | 59 | 229 | 7.0 | 22.0 | 0.00 | 0.00 | 0.00 | 45 | 1014.4 |
| 20260505225744 | 59 | 209 | 8.0 | 22.0 | 0.00 | 0.00 | 0.00 | 45 | 1014.4 |
| 20260505225620 | 59 | 220 | 9.0 | 22.0 | 0.00 | 0.00 | 0.00 | 45 | 1014.4 |
| 20260505225534 | 59 | 214 | 11.0 | 22.0 | 0.00 | 0.00 | 0.00 | 46 | 1014.4 |
| 20260505225430 | 58 | 221 | 10.0 | 22.0 | 0.00 | 0.00 | 0.00 | 46 | 1014.4 |
| 20260505225326 | 58 | 248 | 9.0 | 22.0 | 0.00 | 0.00 | 0.00 | 46 | 1014.4 |
| 20260505225236 | 58 | 244 | 9.0 | 22.0 | 0.00 | 0.00 | 0.00 | 46 | 1014.4 |
| 20260505225115 | 58 | 229 | 12.0 | 25.0 | 0.00 | 0.00 | 0.00 | 46 | 1014.4 |
| 20260505225045 | 58 | 360 | 12.0 | 25.0 | 0.00 | 0.00 | 0.00 | 46 | 1014.4 |
| 20260505224925 | 58 | 223 | 10.0 | 25.0 | 0.00 | 0.00 | 0.00 | 47 | 1014.4 |
| 20260505224815 | 58 | 217 | 8.0 | 25.0 | 0.00 | 0.00 | 0.00 | 47 | 1014.4 |
| 20260505224736 | 58 | 253 | 12.0 | 25.0 | 0.00 | 0.00 | 0.00 | 46 | 1014.4 |
| 20260505224638 | 58 | 232 | 14.0 | 25.0 | 0.00 | 0.00 | 0.00 | 46 | 1014.4 |
| 20260505224537 | 58 | 360 | 16.0 | 25.0 | 0.00 | 0.00 | 0.00 | 46 | 1014.9 |
| 20260505224433 | 58 | 360 | 15.0 | 25.0 | 0.00 | 0.00 | 0.00 | 46 | 1014.9 |
| 20260505224315 | 58 | 360 | 13.0 | 25.0 | 0.00 | 0.00 | 0.00 | 47 | 1014.9 |
| 20260505224229 | 58 | 217 | 11.0 | 19.0 | 0.00 | 0.00 | 0.00 | 47 | 1014.9 |
| 20260505224139 | 58 | 360 | 12.0 | 19.0 | 0.00 | 0.00 | 0.00 | 47 | 1014.9 |
| 20260505224035 | 58 | 219 | 12.0 | 19.0 | 0.00 | 0.00 | 0.00 | 47 | 1014.9 |
| 20260505223931 | 58 | 360 | 11.0 | 19.0 | 0.00 | 0.00 | 0.00 | 48 | 1014.9 |
| 20260505223841 | 57 | 360 | 12.0 | 19.0 | 0.00 | 0.00 | 0.00 | 48 | 1014.9 |
| 20260505223737 | 57 | 231 | 13.0 | 19.0 | 0.00 | 0.00 | 0.00 | 48 | 1014.9 |
| 20260505223623 | 57 | 220 | 14.0 | 22.0 | 0.00 | 0.00 | 0.00 | 48 | 1014.9 |
| 20260505223532 | 57 | 360 | 14.0 | 23.0 | 0.00 | 0.00 | 0.00 | 48 | 1014.9 |
| 20260505223428 | 57 | 360 | 11.0 | 23.0 | 0.00 | 0.00 | 0.00 | 48 | 1014.9 |
| 20260505223321 | 57 | 252 | 11.0 | 29.0 | 0.00 | 0.00 | 0.00 | 48 | 1014.9 |
| 20260505223221 | 57 | 239 | 10.0 | 29.0 | 0.00 | 0.00 | 0.00 | 48 | 1014.9 |
| 20260505223131 | 57 | 263 | 11.0 | 29.0 | 0.00 | 0.00 | 0.00 | 48 | 1014.9 |
| 20260505223014 | 57 | 360 | 14.0 | 29.0 | 0.00 | 0.00 | 0.00 | 48 | 1014.7 |
| 20260505222930 | 57 | 360 | 16.0 | 29.0 | 0.00 | 0.00 | 0.00 | 48 | 1014.7 |
| 20260505222820 | 57 | 247 | 18.0 | 29.0 | 0.00 | 0.00 | 0.00 | 48 | 1014.7 |
| 20260505222730 | 58 | 360 | 18.0 | 29.0 | 0.00 | 0.00 | 0.00 | 48 | 1014.7 |
| 20260505222626 | 58 | 360 | 18.0 | 29.0 | 0.00 | 0.00 | 0.00 | 47 | 1014.7 |
| 20260505222520 | 58 | 221 | 18.0 | 29.0 | 0.00 | 0.00 | 0.00 | 47 | 1014.7 |
| 20260505222419 | 58 | 360 | 16.0 | 25.0 | 0.00 | 0.00 | 0.00 | 47 | 1014.7 |
| 20260505222329 | 58 | 360 | 16.0 | 25.0 | 0.00 | 0.00 | 0.00 | 47 | 1014.7 |
| 20260505222219 | 58 | 264 | 15.0 | 25.0 | 0.00 | 0.00 | 0.00 | 48 | 1014.7 |
| 20260505222129 | 58 | 238 | 14.0 | 23.0 | 0.00 | 0.00 | 0.00 | 48 | 1014.7 |
| 20260505222039 | 58 | 360 | 13.0 | 23.0 | 0.00 | 0.00 | 0.00 | 47 | 1014.7 |
| 20260505221919 | 58 | 248 | 13.0 | 25.0 | 0.00 | 0.00 | 0.00 | 48 | 1014.7 |
| 20260505221829 | 58 | 276 | 15.0 | 25.0 | 0.00 | 0.00 | 0.00 | 48 | 1014.7 |
| 20260505221722 | 58 | 221 | 15.0 | 25.0 | 0.00 | 0.00 | 0.00 | 48 | 1014.7 |
| 20260505221651 | 58 | 211 | 14.0 | 25.0 | 0.00 | 0.00 | 0.00 | 48 | 1014.7 |
| 20260505221517 | 58 | 211 | 11.0 | 25.0 | 0.00 | 0.00 | 0.00 | 48 | 1015.0 |
| 20260505221427 | 58 | 360 | 11.0 | 26.0 | 0.00 | 0.00 | 0.00 | 48 | 1015.0 |
| 20260505221323 | 58 | 240 | 12.0 | 26.0 | 0.00 | 0.00 | 0.00 | 48 | 1015.0 |
| 20260505221213 | 58 | 360 | 15.0 | 33.0 | 0.00 | 0.00 | 0.00 | 48 | 1015.0 |
| 20260505221143 | 58 | 242 | 16.0 | 33.0 | 0.00 | 0.00 | 0.00 | 48 | 1015.0 |
| 20260505221025 | 58 | 360 | 17.0 | 33.0 | 0.00 | 0.00 | 0.00 | 48 | 1015.0 |
| 20260505220922 | 58 | 259 | 16.0 | 33.0 | 0.00 | 0.00 | 0.00 | 48 | 1015.0 |
| 20260505220831 | 57 | 360 | 17.0 | 33.0 | 0.00 | 0.00 | 0.00 | 48 | 1015.0 |
| 20260505220711 | 57 | 210 | 18.0 | 33.0 | 0.00 | 0.00 | 0.00 | 47 | 1015.0 |
| 20260505220624 | 57 | 360 | 21.0 | 33.0 | 0.00 | 0.00 | 0.00 | 48 | 1015.0 |
| 20260505220514 | 57 | 360 | 21.0 | 33.0 | 0.00 | 0.00 | 0.00 | 47 | 1015.0 |
| 20260505220424 | 58 | 360 | 23.0 | 32.0 | 0.00 | 0.00 | 0.00 | 47 | 1015.0 |
| 20260505220317 | 58 | 360 | 21.0 | 32.0 | 0.00 | 0.00 | 0.00 | 47 | 1015.0 |
| 20260505220221 | 58 | 360 | 18.0 | 27.0 | 0.00 | 0.00 | 0.00 | 47 | 1015.0 |
| 20260505220151 | 58 | 241 | 16.0 | 26.0 | 0.00 | 0.00 | 0.00 | 47 | 1015.0 |
| 20260505220022 | 58 | 231 | 14.0 | 26.0 | 0.00 | 0.00 | 0.00 | 47 | 1015.2 |
| 20260505215918 | 58 | 360 | 16.0 | 26.0 | 0.00 | 0.00 | 0.00 | 47 | 1015.2 |
| 20260505215827 | 58 | 223 | 17.0 | 26.0 | 0.00 | 0.00 | 0.00 | 47 | 1015.2 |
| 20260505215724 | 58 | 227 | 18.0 | 32.0 | 0.00 | 0.00 | 0.00 | 47 | 1015.2 |
| 20260505215617 | 58 | 360 | 17.0 | 32.0 | 0.00 | 0.00 | 0.00 | 48 | 1015.2 |
| 20260505215531 | 57 | 360 | 15.0 | 32.0 | 0.00 | 0.00 | 0.00 | 48 | 1015.2 |
| 20260505215420 | 57 | 249 | 10.0 | 32.0 | 0.00 | 0.00 | 0.00 | 48 | 1015.2 |
| 20260505215310 | 57 | 360 | 12.0 | 32.0 | 0.00 | 0.00 | 0.00 | 48 | 1015.2 |
| 20260505215230 | 57 | 228 | 13.0 | 32.0 | 0.00 | 0.00 | 0.00 | 48 | 1015.2 |
| 20260505215119 | 57 | 360 | 17.0 | 32.0 | 0.00 | 0.00 | 0.00 | 48 | 1015.2 |
| 20260505215013 | 57 | 360 | 22.0 | 32.0 | 0.00 | 0.00 | 0.00 | 48 | 1015.2 |
| 20260505214924 | 57 | 360 | 22.0 | 32.0 | 0.00 | 0.00 | 0.00 | 48 | 1015.2 |
| 20260505214813 | 57 | 360 | 19.0 | 29.0 | 0.00 | 0.00 | 0.00 | 48 | 1015.2 |
| 20260505214713 | 57 | 360 | 14.0 | 25.0 | 0.00 | 0.00 | 0.00 | 49 | 1015.2 |
| 20260505214643 | 57 | 360 | 11.0 | 24.0 | 0.00 | 0.00 | 0.00 | 50 | 1015.2 |
| 20260505214526 | 57 | 240 | 9.0 | 22.0 | 0.00 | 0.00 | 0.00 | 50 | 1015.4 |
| 20260505214416 | 57 | 285 | 14.0 | 22.0 | 0.00 | 0.00 | 0.00 | 50 | 1015.4 |
| 20260505214332 | 57 | 360 | 15.0 | 22.0 | 0.00 | 0.00 | 0.00 | 50 | 1015.4 |
| 20260505214222 | 57 | 194 | 14.0 | 24.0 | 0.00 | 0.00 | 0.00 | 51 | 1015.4 |
| 20260505214118 | 56 | 242 | 12.0 | 24.0 | 0.00 | 0.00 | 0.00 | 51 | 1015.4 |
| 20260505214015 | 56 | 254 | 10.0 | 24.0 | 0.00 | 0.00 | 0.00 | 51 | 1015.4 |
| 20260505213925 | 56 | 360 | 9.0 | 24.0 | 0.00 | 0.00 | 0.00 | 51 | 1015.4 |
| 20260505213815 | 56 | 225 | 12.0 | 24.0 | 0.00 | 0.00 | 0.00 | 51 | 1015.4 |
| 20260505213725 | 56 | 238 | 15.0 | 24.0 | 0.00 | 0.00 | 0.00 | 51 | 1015.4 |
| 20260505213618 | 56 | 213 | 17.0 | 24.0 | 0.00 | 0.00 | 0.00 | 51 | 1015.4 |
| 20260505213528 | 56 | 360 | 17.0 | 24.0 | 0.00 | 0.00 | 0.00 | 51 | 1015.4 |
| 20260505213428 | 56 | 226 | 16.0 | 24.0 | 0.00 | 0.00 | 0.00 | 51 | 1015.4 |
| 20260505213341 | 56 | 210 | 14.0 | 22.0 | 0.00 | 0.00 | 0.00 | 52 | 1015.4 |
| 20260505213220 | 56 | 217 | 14.0 | 21.0 | 0.00 | 0.00 | 0.00 | 53 | 1015.4 |
| 20260505213141 | 56 | 208 | 15.0 | 21.0 | 0.00 | 0.00 | 0.00 | 53 | 1015.4 |
| 20260505213020 | 56 | 227 | 13.0 | 21.0 | 0.00 | 0.00 | 0.00 | 52 | 1015.8 |
| 20260505212917 | 56 | 244 | 11.0 | 19.0 | 0.00 | 0.00 | 0.00 | 52 | 1015.8 |
| 20260505212826 | 56 | 360 | 11.0 | 19.0 | 0.00 | 0.00 | 0.00 | 53 | 1015.8 |
| 20260505212716 | 56 | 240 | 12.0 | 19.0 | 0.00 | 0.00 | 0.00 | 52 | 1015.8 |
| 20260505212626 | 56 | 219 | 12.0 | 19.0 | 0.00 | 0.00 | 0.00 | 53 | 1015.8 |
| 20260505212519 | 56 | 238 | 10.0 | 19.0 | 0.00 | 0.00 | 0.00 | 52 | 1015.8 |
| 20260505212413 | 56 | 226 | 11.0 | 19.0 | 0.00 | 0.00 | 0.00 | 52 | 1015.8 |
| 20260505212326 | 56 | 229 | 13.0 | 19.0 | 0.00 | 0.00 | 0.00 | 52 | 1015.8 |
| 20260505212216 | 56 | 360 | 14.0 | 19.0 | 0.00 | 0.00 | 0.00 | 52 | 1015.8 |
| 20260505212126 | 56 | 231 | 13.0 | 19.0 | 0.00 | 0.00 | 0.00 | 52 | 1015.8 |
| 20260505212016 | 56 | 360 | 14.0 | 19.0 | 0.00 | 0.00 | 0.00 | 52 | 1015.8 |
| 20260505211930 | 56 | 211 | 13.0 | 19.0 | 0.00 | 0.00 | 0.00 | 52 | 1015.8 |
| 20260505211840 | 56 | 360 | 10.0 | 18.0 | 0.00 | 0.00 | 0.00 | 52 | 1015.8 |
| 20260505211722 | 56 | 360 | 8.0 | 22.0 | 0.00 | 0.00 | 0.00 | 53 | 1015.8 |
| 20260505211629 | 56 | 232 | 9.0 | 22.0 | 0.00 | 0.00 | 0.00 | 53 | 1015.8 |
| 20260505211527 | 56 | 209 | 11.0 | 22.0 | 0.00 | 0.00 | 0.00 | 52 | 1016.2 |
| 20260505211424 | 56 | 360 | 11.0 | 22.0 | 0.00 | 0.00 | 0.00 | 53 | 1016.2 |
| 20260505211320 | 56 | 360 | 12.0 | 22.0 | 0.00 | 0.00 | 0.00 | 53 | 1016.2 |
| 20260505211231 | 56 | 242 | 12.0 | 22.0 | 0.00 | 0.00 | 0.00 | 53 | 1016.2 |
| 20260505211121 | 56 | 200 | 12.0 | 22.0 | 0.00 | 0.00 | 0.00 | 53 | 1016.2 |
| 20260505211030 | 56 | 360 | 14.0 | 22.0 | 0.00 | 0.00 | 0.00 | 52 | 1016.2 |
| 20260505210927 | 56 | 360 | 14.0 | 22.0 | 0.00 | 0.00 | 0.00 | 52 | 1016.2 |
| 20260505210819 | 56 | 360 | 11.0 | 20.0 | 0.00 | 0.00 | 0.00 | 53 | 1016.2 |
| 20260505210713 | 56 | 225 | 8.0 | 19.0 | 0.00 | 0.00 | 0.00 | 52 | 1016.2 |
| 20260505210626 | 56 | 209 | 9.0 | 19.0 | 0.00 | 0.00 | 0.00 | 52 | 1016.2 |
| 20260505210516 | 56 | 238 | 10.0 | 19.0 | 0.00 | 0.00 | 0.00 | 52 | 1016.2 |
| 20260505210426 | 56 | 214 | 11.0 | 19.0 | 0.00 | 0.00 | 0.00 | 52 | 1016.2 |
| 20260505210316 | 56 | 230 | 9.0 | 22.0 | 0.00 | 0.00 | 0.00 | 52 | 1016.2 |
| 20260505210230 | 57 | 212 | 10.0 | 22.0 | 0.00 | 0.00 | 0.00 | 52 | 1016.2 |
| 20260505210128 | 57 | 267 | 12.0 | 22.0 | 0.00 | 0.00 | 0.00 | 51 | 1016.2 |
| 20260505210029 | 57 | 243 | 13.0 | 22.0 | 0.00 | 0.00 | 0.00 | 52 | 1016.4 |
| 20260505205919 | 57 | 214 | 11.0 | 22.0 | 0.00 | 0.00 | 0.00 | 52 | 1016.4 |
| 20260505205832 | 57 | 360 | 11.0 | 22.0 | 0.00 | 0.00 | 0.00 | 52 | 1016.4 |
| 20260505205726 | 56 | 227 | 14.0 | 22.0 | 0.00 | 0.00 | 0.00 | 52 | 1016.4 |
| 20260505205616 | 56 | 360 | 12.0 | 22.0 | 0.00 | 0.00 | 0.00 | 52 | 1016.4 |
| 20260505205546 | 56 | 228 | 10.0 | 22.0 | 0.00 | 0.00 | 0.00 | 53 | 1016.4 |
| 20260505205428 | 56 | 215 | 10.0 | 18.0 | 0.00 | 0.00 | 0.00 | 53 | 1016.4 |
| 20260505205338 | 56 | 222 | 11.0 | 18.0 | 0.00 | 0.00 | 0.00 | 53 | 1016.4 |
| 20260505205220 | 56 | 236 | 12.0 | 18.0 | 0.00 | 0.00 | 0.00 | 54 | 1016.4 |
| 20260505205114 | 56 | 360 | 11.0 | 18.0 | 0.00 | 0.00 | 0.00 | 54 | 1016.4 |
| 20260505205023 | 56 | 221 | 11.0 | 18.0 | 0.00 | 0.00 | 0.00 | 54 | 1016.4 |
| 20260505204917 | 56 | 360 | 11.0 | 19.0 | 0.00 | 0.00 | 0.00 | 54 | 1016.4 |
| 20260505204829 | 56 | 246 | 11.0 | 19.0 | 0.00 | 0.00 | 0.00 | 54 | 1016.4 |
| 20260505204717 | 56 | 360 | 9.0 | 19.0 | 0.00 | 0.00 | 0.00 | 55 | 1016.4 |
| 20260505204625 | 56 | 215 | 6.0 | 19.0 | 0.00 | 0.00 | 0.00 | 56 | 1016.4 |
| 20260505204531 | 55 | 360 | 5.0 | 19.0 | 0.00 | 0.00 | 0.00 | 56 | 1016.4 |
| 20260505204428 | 55 | 229 | 7.0 | 19.0 | 0.00 | 0.00 | 0.00 | 55 | 1016.4 |
| 20260505204323 | 55 | 211 | 11.0 | 19.0 | 0.00 | 0.00 | 0.00 | 55 | 1016.4 |
| 20260505204216 | 55 | 213 | 15.0 | 19.0 | 0.00 | 0.00 | 0.00 | 56 | 1016.4 |
| 20260505204132 | 55 | 219 | 15.0 | 19.0 | 0.00 | 0.00 | 0.00 | 56 | 1016.4 |
| 20260505204042 | 55 | 223 | 15.0 | 19.0 | 0.00 | 0.00 | 0.00 | 56 | 1016.4 |
| 20260505203922 | 55 | 218 | 14.0 | 22.0 | 0.00 | 0.00 | 0.00 | 56 | 1016.4 |
| 20260505203832 | 55 | 215 | 13.0 | 22.0 | 0.00 | 0.00 | 0.00 | 56 | 1016.4 |
| 20260505203722 | 55 | 227 | 12.0 | 22.0 | 0.00 | 0.00 | 0.00 | 57 | 1016.4 |
| 20260505203632 | 55 | 225 | 12.0 | 22.0 | 0.00 | 0.00 | 0.00 | 57 | 1016.4 |
| 20260505203522 | 55 | 230 | 11.0 | 22.0 | 0.00 | 0.00 | 0.00 | 58 | 1016.4 |
| 20260505203419 | 55 | 213 | 11.0 | 22.0 | 0.00 | 0.00 | 0.00 | 57 | 1016.4 |
| 20260505203329 | 54 | 223 | 13.0 | 23.0 | 0.00 | 0.00 | 0.00 | 57 | 1016.4 |
| 20260505203216 | 54 | 226 | 15.0 | 23.0 | 0.00 | 0.00 | 0.00 | 57 | 1016.4 |
| 20260505203125 | 54 | 360 | 15.0 | 23.0 | 0.00 | 0.00 | 0.00 | 57 | 1016.4 |
| 20260505203030 | 54 | 266 | 13.0 | 23.0 | 0.00 | 0.00 | 0.00 | 58 | 1016.8 |
| 20260505202919 | 54 | 236 | 12.0 | 23.0 | 0.00 | 0.00 | 0.00 | 58 | 1016.8 |
| 20260505202813 | 54 | 360 | 12.0 | 27.0 | 0.00 | 0.00 | 0.00 | 59 | 1016.8 |
| 20260505202743 | 54 | 254 | 13.0 | 27.0 | 0.00 | 0.00 | 0.00 | 58 | 1016.8 |
| 20260505202619 | 54 | 248 | 15.0 | 31.0 | 0.00 | 0.00 | 0.00 | 58 | 1016.8 |
| 20260505202529 | 54 | 244 | 16.0 | 31.0 | 0.00 | 0.00 | 0.00 | 58 | 1016.8 |
| 20260505202422 | 54 | 360 | 13.0 | 31.0 | 0.00 | 0.00 | 0.00 | 58 | 1016.8 |
| 20260505202316 | 54 | 243 | 13.0 | 31.0 | 0.00 | 0.00 | 0.00 | 59 | 1016.8 |
| 20260505202229 | 54 | 227 | 15.0 | 31.0 | 0.00 | 0.00 | 0.00 | 58 | 1016.8 |
| 20260505202139 | 54 | 360 | 16.0 | 31.0 | 0.00 | 0.00 | 0.00 | 58 | 1016.8 |
| 20260505202035 | 54 | 234 | 16.0 | 31.0 | 0.00 | 0.00 | 0.00 | 59 | 1016.8 |
| 20260505201931 | 54 | 229 | 18.0 | 31.0 | 0.00 | 0.00 | 0.00 | 58 | 1016.8 |
| 20260505201841 | 54 | 232 | 20.0 | 33.0 | 0.00 | 0.00 | 0.00 | 58 | 1016.8 |
| 20260505201715 | 54 | 360 | 17.0 | 33.0 | 0.00 | 0.00 | 0.00 | 58 | 1016.8 |
| 20260505201624 | 54 | 258 | 17.0 | 33.0 | 0.00 | 0.00 | 0.00 | 59 | 1016.8 |
| 20260505201526 | 54 | 225 | 17.0 | 33.0 | 0.00 | 0.00 | 0.00 | 58 | 1016.5 |
| 20260505201416 | 54 | 228 | 19.0 | 33.0 | 0.00 | 0.00 | 0.00 | 58 | 1016.5 |
| 20260505201329 | 53 | 227 | 18.0 | 33.0 | 0.00 | 0.00 | 0.00 | 58 | 1016.5 |
| 20260505201223 | 54 | 244 | 20.0 | 33.0 | 0.00 | 0.00 | 0.00 | 58 | 1016.5 |
| 20260505201133 | 54 | 229 | 21.0 | 33.0 | 0.00 | 0.00 | 0.00 | 58 | 1016.5 |
| 20260505201029 | 54 | 237 | 24.0 | 33.0 | 0.00 | 0.00 | 0.00 | 58 | 1016.5 |
| 20260505200919 | 54 | 360 | 23.0 | 32.0 | 0.00 | 0.00 | 0.00 | 58 | 1016.5 |
| 20260505200811 | 54 | 360 | 19.0 | 32.0 | 0.00 | 0.00 | 0.00 | 58 | 1016.5 |
| 20260505200729 | 54 | 360 | 18.0 | 28.0 | 0.00 | 0.00 | 0.00 | 57 | 1016.5 |
| 20260505200621 | 54 | 232 | 18.0 | 28.0 | 0.00 | 0.00 | 0.00 | 57 | 1016.5 |
| 20260505200531 | 54 | 238 | 18.0 | 29.0 | 0.00 | 0.00 | 0.00 | 57 | 1016.5 |
| 20260505200421 | 54 | 240 | 15.0 | 29.0 | 0.00 | 0.00 | 0.00 | 57 | 1016.5 |
| 20260505200314 | 53 | 229 | 18.0 | 32.0 | 0.00 | 0.00 | 0.00 | 57 | 1016.5 |
| 20260505200221 | 53 | 221 | 20.0 | 32.0 | 0.00 | 0.00 | 0.00 | 57 | 1016.5 |
| 20260505200138 | 53 | 360 | 22.0 | 33.0 | 0.00 | 0.00 | 0.00 | 57 | 1016.5 |
| 20260505200025 | 53 | 244 | 19.0 | 33.0 | 0.00 | 0.00 | 0.00 | 57 | 1016.5 |
| 20260505195915 | 53 | 360 | 17.0 | 33.0 | 0.00 | 0.00 | 0.00 | 58 | 1016.5 |
| 20260505195825 | 53 | 360 | 19.0 | 33.0 | 0.00 | 0.00 | 0.00 | 58 | 1016.5 |
| 20260505195718 | 53 | 235 | 17.0 | 33.0 | 0.00 | 0.00 | 0.00 | 58 | 1016.5 |
| 20260505195612 | 53 | 360 | 17.0 | 33.0 | 0.00 | 0.00 | 0.00 | 58 | 1016.5 |
| 20260505195525 | 53 | 360 | 21.0 | 33.0 | 0.00 | 0.00 | 0.00 | 58 | 1016.5 |
| 20260505195415 | 53 | 256 | 22.0 | 33.0 | 0.00 | 0.00 | 0.00 | 58 | 1016.5 |
| 20260505195325 | 53 | 245 | 22.0 | 33.0 | 0.00 | 0.00 | 0.00 | 59 | 1016.5 |
| 20260505195235 | 53 | 360 | 19.0 | 35.0 | 0.00 | 0.00 | 0.00 | 59 | 1016.5 |
| 20260505195135 | 53 | 246 | 19.0 | 35.0 | 0.00 | 0.00 | 0.00 | 59 | 1016.5 |
| 20260505195011 | 53 | 232 | 20.0 | 35.0 | 0.00 | 0.00 | 0.00 | 59 | 1016.5 |
| 20260505194923 | 53 | 360 | 20.0 | 35.0 | 0.00 | 0.00 | 0.00 | 59 | 1016.5 |
| 20260505194833 | 53 | 360 | 19.0 | 35.0 | 0.00 | 0.00 | 0.00 | 59 | 1016.5 |
| 20260505194721 | 53 | 213 | 19.0 | 35.0 | 0.00 | 0.00 | 0.00 | 59 | 1016.5 |
| 20260505194628 | 53 | 215 | 18.0 | 35.0 | 0.00 | 0.00 | 0.00 | 59 | 1016.5 |
| 20260505194514 | 53 | 237 | 22.0 | 35.0 | 0.00 | 0.00 | 0.00 | 59 | 1016.4 |
| 20260505194426 | 53 | 239 | 25.0 | 35.0 | 0.00 | 0.00 | 0.00 | 58 | 1016.4 |
| 20260505194316 | 53 | 247 | 25.0 | 34.0 | 0.00 | 0.00 | 0.00 | 58 | 1016.4 |
| 20260505194226 | 53 | 252 | 25.0 | 34.0 | 0.00 | 0.00 | 0.00 | 58 | 1016.4 |
| 20260505194136 | 53 | 215 | 23.0 | 34.0 | 0.00 | 0.00 | 0.00 | 59 | 1016.4 |
| 20260505194016 | 53 | 236 | 24.0 | 35.0 | 0.00 | 0.00 | 0.00 | 59 | 1016.4 |
| 20260505193929 | 53 | 360 | 22.0 | 35.0 | 0.00 | 0.00 | 0.00 | 59 | 1016.4 |
| 20260505193819 | 53 | 211 | 22.0 | 35.0 | 0.00 | 0.00 | 0.00 | 59 | 1016.4 |
| 20260505193729 | 53 | 238 | 23.0 | 35.0 | 0.00 | 0.00 | 0.00 | 58 | 1016.4 |
| 20260505193622 | 53 | 228 | 25.0 | 35.0 | 0.00 | 0.00 | 0.00 | 58 | 1016.4 |
| 20260505193516 | 54 | 233 | 24.0 | 33.0 | 0.00 | 0.00 | 0.00 | 57 | 1016.4 |
| 20260505193429 | 54 | 360 | 23.0 | 31.0 | 0.00 | 0.00 | 0.00 | 56 | 1016.4 |
| 20260505193325 | 54 | 228 | 19.0 | 32.0 | 0.00 | 0.00 | 0.00 | 56 | 1016.4 |
| 20260505193215 | 54 | 251 | 17.0 | 30.0 | 0.00 | 0.00 | 0.00 | 56 | 1016.4 |
| 20260505193144 | 54 | 263 | 18.0 | 30.0 | 0.00 | 0.00 | 0.00 | 56 | 1016.4 |
| 20260505193028 | 54 | 360 | 18.0 | 30.0 | 0.00 | 0.00 | 0.00 | 56 | 1016.3 |
| 20260505192922 | 53 | 360 | 18.0 | 30.0 | 0.00 | 0.00 | 0.00 | 57 | 1016.3 |
| 20260505192832 | 53 | 231 | 18.0 | 36.0 | 0.00 | 0.00 | 0.00 | 57 | 1016.3 |
| 20260505192722 | 53 | 249 | 21.0 | 36.0 | 0.00 | 0.00 | 0.00 | 57 | 1016.3 |
| 20260505192615 | 53 | 360 | 20.0 | 36.0 | 0.00 | 0.00 | 0.00 | 57 | 1016.3 |
| 20260505192525 | 53 | 250 | 20.0 | 36.0 | 0.00 | 0.00 | 0.00 | 57 | 1016.3 |
| 20260505192419 | 53 | 219 | 18.0 | 36.0 | 0.00 | 0.00 | 0.00 | 58 | 1016.3 |
| 20260505192329 | 53 | 234 | 18.0 | 36.0 | 0.00 | 0.00 | 0.00 | 59 | 1016.3 |
| 20260505192242 | 53 | 360 | 20.0 | 36.0 | 0.00 | 0.00 | 0.00 | 59 | 1016.3 |
| 20260505192118 | 53 | 360 | 20.0 | 36.0 | 0.00 | 0.00 | 0.00 | 58 | 1016.3 |
| 20260505192028 | 53 | 234 | 18.0 | 36.0 | 0.00 | 0.00 | 0.00 | 59 | 1016.3 |
| 20260505191938 | 53 | 360 | 16.0 | 35.0 | 0.00 | 0.00 | 0.00 | 59 | 1016.3 |
| 20260505191838 | 53 | 239 | 19.0 | 35.0 | 0.00 | 0.00 | 0.00 | 58 | 1016.3 |
| 20260505191717 | 53 | 253 | 22.0 | 35.0 | 0.00 | 0.00 | 0.00 | 58 | 1016.3 |
| 20260505191638 | 53 | 240 | 23.0 | 35.0 | 0.00 | 0.00 | 0.00 | 57 | 1016.3 |
| 20260505191517 | 53 | 224 | 25.0 | 35.0 | 0.00 | 0.00 | 0.00 | 57 | 1016.3 |
| 20260505191430 | 53 | 217 | 24.0 | 35.0 | 0.00 | 0.00 | 0.00 | 57 | 1016.3 |
| 20260505191324 | 53 | 241 | 21.0 | 35.0 | 0.00 | 0.00 | 0.00 | 56 | 1016.3 |
| 20260505191217 | 53 | 360 | 21.0 | 31.0 | 0.00 | 0.00 | 0.00 | 55 | 1016.3 |
| 20260505191127 | 53 | 360 | 19.0 | 31.0 | 0.00 | 0.00 | 0.00 | 55 | 1016.3 |
| 20260505191017 | 53 | 360 | 18.0 | 31.0 | 0.00 | 0.00 | 0.00 | 55 | 1016.3 |
| 20260505190910 | 53 | 257 | 16.0 | 26.0 | 0.00 | 0.00 | 0.00 | 55 | 1016.3 |
| 20260505190827 | 53 | 214 | 14.0 | 26.0 | 0.00 | 0.00 | 0.00 | 56 | 1016.3 |
| 20260505190720 | 53 | 219 | 15.0 | 26.0 | 0.00 | 0.00 | 0.00 | 56 | 1016.3 |
| 20260505190616 | 53 | 180 | 13.0 | 26.0 | 0.00 | 0.00 | 0.00 | 57 | 1016.3 |
| 20260505190512 | 52 | 213 | 11.0 | 22.0 | 0.00 | 0.00 | 0.00 | 58 | 1016.3 |
| 20260505190425 | 52 | 226 | 11.0 | 20.0 | 0.00 | 0.00 | 0.00 | 58 | 1016.3 |
| 20260505190321 | 52 | 226 | 12.0 | 20.0 | 0.00 | 0.00 | 0.00 | 57 | 1016.3 |
| 20260505190215 | 52 | 209 | 12.0 | 21.0 | 0.00 | 0.00 | 0.00 | 58 | 1016.3 |
| 20260505190139 | 52 | 360 | 11.0 | 17.0 | 0.00 | 0.00 | 0.00 | 58 | 1016.3 |
| 20260505190017 | 52 | 227 | 12.0 | 17.0 | 0.00 | 0.00 | 0.00 | 58 | 1016.5 |
| 20260505185927 | 52 | 221 | 12.0 | 17.0 | 0.00 | 0.00 | 0.00 | 58 | 1016.5 |
| 20260505185826 | 52 | 224 | 11.0 | 20.0 | 0.00 | 0.00 | 0.00 | 59 | 1016.5 |
| 20260505185729 | 52 | 211 | 11.0 | 24.0 | 0.00 | 0.00 | 0.00 | 59 | 1016.5 |
| 20260505185639 | 52 | 206 | 12.0 | 29.0 | 0.00 | 0.00 | 0.00 | 59 | 1016.5 |
| 20260505185521 | 52 | 202 | 11.0 | 29.0 | 0.00 | 0.00 | 0.00 | 60 | 1016.5 |
| 20260505185411 | 52 | 234 | 9.0 | 29.0 | 0.00 | 0.00 | 0.00 | 60 | 1016.5 |
| 20260505185324 | 52 | 210 | 11.0 | 29.0 | 0.00 | 0.00 | 0.00 | 59 | 1016.5 |
| 20260505185214 | 52 | 218 | 14.0 | 29.0 | 0.00 | 0.00 | 0.00 | 58 | 1016.5 |
| 20260505185128 | 52 | 217 | 15.0 | 29.0 | 0.00 | 0.00 | 0.00 | 59 | 1016.5 |
| 20260505185018 | 52 | 246 | 17.0 | 29.0 | 0.00 | 0.00 | 0.00 | 58 | 1016.5 |
| 20260505184931 | 52 | 227 | 19.0 | 29.0 | 0.00 | 0.00 | 0.00 | 58 | 1016.5 |
| 20260505184821 | 53 | 242 | 19.0 | 30.0 | 0.00 | 0.00 | 0.00 | 58 | 1016.5 |
| 20260505184731 | 53 | 360 | 16.0 | 30.0 | 0.00 | 0.00 | 0.00 | 57 | 1016.5 |
| 20260505184622 | 53 | 360 | 13.0 | 30.0 | 0.00 | 0.00 | 0.00 | 57 | 1016.5 |
| 20260505184524 | 53 | 360 | 11.0 | 30.0 | 0.00 | 0.00 | 0.00 | 56 | 1016.4 |
| 20260505184420 | 53 | 360 | 11.0 | 30.0 | 0.00 | 0.00 | 0.00 | 55 | 1016.4 |
| 20260505184310 | 53 | 360 | 14.0 | 30.0 | 0.00 | 0.00 | 0.00 | 55 | 1016.4 |
| 20260505184230 | 53 | 360 | 17.0 | 30.0 | 0.00 | 0.00 | 0.00 | 55 | 1016.4 |
| 20260505184122 | 53 | 360 | 19.0 | 30.0 | 0.00 | 0.00 | 0.00 | 54 | 1016.4 |
| 20260505184019 | 53 | 360 | 20.0 | 30.0 | 0.00 | 0.00 | 0.00 | 53 | 1016.4 |
| 20260505183929 | 54 | 291 | 16.0 | 30.0 | 0.00 | 0.00 | 0.00 | 53 | 1016.4 |
| 20260505183825 | 54 | 286 | 16.0 | 30.0 | 0.00 | 0.00 | 0.00 | 53 | 1016.4 |
| 20260505183715 | 54 | 275 | 20.0 | 30.0 | 0.00 | 0.00 | 0.00 | 52 | 1016.4 |
| 20260505183631 | 54 | 360 | 22.0 | 30.0 | 0.00 | 0.00 | 0.00 | 50 | 1016.4 |
| 20260505183525 | 54 | 276 | 21.0 | 30.0 | 0.00 | 0.00 | 0.00 | 50 | 1016.4 |
| 20260505183415 | 55 | 360 | 20.0 | 30.0 | 0.00 | 0.00 | 0.00 | 50 | 1016.4 |
| 20260505183325 | 55 | 360 | 19.0 | 30.0 | 0.00 | 0.00 | 0.00 | 50 | 1016.4 |
| 20260505183221 | 55 | 281 | 15.0 | 26.0 | 0.00 | 0.00 | 0.00 | 49 | 1016.4 |
| 20260505183142 | 55 | 292 | 12.0 | 23.0 | 0.00 | 0.00 | 0.00 | 48 | 1016.4 |
| 20260505183021 | 55 | 360 | 9.0 | 19.0 | 0.00 | 0.00 | 0.00 | 47 | 1016.2 |
| 20260505182924 | 55 | 266 | 8.0 | 18.0 | 0.00 | 0.00 | 0.00 | 45 | 1016.2 |
| 20260505182814 | 55 | 274 | 9.0 | 18.0 | 0.00 | 0.00 | 0.00 | 45 | 1016.2 |
| 20260505182724 | 55 | 263 | 10.0 | 18.0 | 0.00 | 0.00 | 0.00 | 45 | 1016.2 |
| 20260505182620 | 55 | 271 | 9.0 | 18.0 | 0.00 | 0.00 | 0.00 | 45 | 1016.2 |
| 20260505182513 | 55 | 257 | 9.0 | 18.0 | 0.00 | 0.00 | 0.00 | 45 | 1016.2 |
| 20260505182427 | 54 | 243 | 10.0 | 18.0 | 0.00 | 0.00 | 0.00 | 45 | 1016.2 |
| 20260505182323 | 54 | 360 | 12.0 | 20.0 | 0.00 | 0.00 | 0.00 | 45 | 1016.2 |
| 20260505182233 | 54 | 190 | 12.0 | 20.0 | 0.00 | 0.00 | 0.00 | 45 | 1016.2 |
| 20260505182129 | 54 | 220 | 13.0 | 20.0 | 0.00 | 0.00 | 0.00 | 45 | 1016.2 |
| 20260505182019 | 54 | 232 | 13.0 | 20.0 | 0.00 | 0.00 | 0.00 | 45 | 1016.2 |
| 20260505181932 | 54 | 360 | 12.0 | 20.0 | 0.00 | 0.00 | 0.00 | 45 | 1016.2 |
| 20260505181826 | 54 | 227 | 12.0 | 20.0 | 0.00 | 0.00 | 0.00 | 45 | 1016.2 |
| 20260505181719 | 54 | 360 | 12.0 | 20.0 | 0.00 | 0.00 | 0.00 | 45 | 1016.2 |
| 20260505181640 | 54 | 259 | 12.0 | 20.0 | 0.00 | 0.00 | 0.00 | 45 | 1016.2 |
| 20260505181519 | 54 | 204 | 12.0 | 17.0 | 0.00 | 0.00 | 0.00 | 44 | 1016.7 |
| 20260505181429 | 54 | 200 | 12.0 | 17.0 | 0.00 | 0.00 | 0.00 | 45 | 1016.7 |
| 20260505181329 | 54 | 227 | 12.0 | 17.0 | 0.00 | 0.00 | 0.00 | 45 | 1016.7 |
| 20260505181222 | 54 | 216 | 12.0 | 17.0 | 0.00 | 0.00 | 0.00 | 44 | 1016.7 |
| 20260505181132 | 54 | 209 | 11.0 | 19.0 | 0.00 | 0.00 | 0.00 | 44 | 1016.7 |
| 20260505181014 | 54 | 360 | 9.0 | 19.0 | 0.00 | 0.00 | 0.00 | 44 | 1016.7 |
| 20260505180910 | 54 | 239 | 7.0 | 19.0 | 0.00 | 0.00 | 0.00 | 45 | 1016.7 |
| 20260505180829 | 54 | 251 | 8.0 | 19.0 | 0.00 | 0.00 | 0.00 | 45 | 1016.7 |
| 20260505180726 | 54 | 360 | 8.0 | 19.0 | 0.00 | 0.00 | 0.00 | 45 | 1016.7 |
| 20260505180616 | 54 | 360 | 10.0 | 19.0 | 0.00 | 0.00 | 0.00 | 44 | 1016.7 |
| 20260505180529 | 54 | 360 | 11.0 | 19.0 | 0.00 | 0.00 | 0.00 | 44 | 1016.7 |
| 20260505180419 | 54 | 232 | 12.0 | 20.0 | 0.00 | 0.00 | 0.00 | 44 | 1016.7 |
| 20260505180329 | 55 | 360 | 11.0 | 20.0 | 0.00 | 0.00 | 0.00 | 44 | 1016.7 |
| 20260505180220 | 54 | 237 | 10.0 | 20.0 | 0.00 | 0.00 | 0.00 | 45 | 1016.7 |
| 20260505180130 | 55 | 223 | 9.0 | 20.0 | 0.00 | 0.00 | 0.00 | 44 | 1016.7 |
| 20260505180029 | 55 | 267 | 9.0 | 20.0 | 0.00 | 0.00 | 0.00 | 45 | 1016.6 |
| 20260505175919 | 55 | 226 | 9.0 | 20.0 | 0.00 | 0.00 | 0.00 | 45 | 1016.6 |
| 20260505175829 | 55 | 238 | 9.0 | 20.0 | 0.00 | 0.00 | 0.00 | 45 | 1016.6 |
| 20260505175739 | 55 | 360 | 11.0 | 20.0 | 0.00 | 0.00 | 0.00 | 45 | 1016.6 |
| 20260505175639 | 55 | 360 | 11.0 | 20.0 | 0.00 | 0.00 | 0.00 | 45 | 1016.6 |
| 20260505175535 | 55 | 360 | 10.0 | 20.0 | 0.00 | 0.00 | 0.00 | 45 | 1016.6 |
| 20260505175417 | 55 | 244 | 10.0 | 22.0 | 0.00 | 0.00 | 0.00 | 45 | 1016.6 |
| 20260505175327 | 55 | 267 | 10.0 | 26.0 | 0.00 | 0.00 | 0.00 | 44 | 1016.6 |
| 20260505175237 | 55 | 225 | 11.0 | 26.0 | 0.00 | 0.00 | 0.00 | 44 | 1016.6 |
| 20260505175133 | 55 | 234 | 11.0 | 26.0 | 0.00 | 0.00 | 0.00 | 44 | 1016.6 |
| 20260505175015 | 55 | 211 | 13.0 | 26.0 | 0.00 | 0.00 | 0.00 | 44 | 1016.6 |
| 20260505174929 | 55 | 228 | 12.0 | 26.0 | 0.00 | 0.00 | 0.00 | 44 | 1016.6 |
| 20260505174825 | 55 | 360 | 12.0 | 26.0 | 0.00 | 0.00 | 0.00 | 45 | 1016.6 |
| 20260505174718 | 55 | 223 | 16.0 | 26.0 | 0.00 | 0.00 | 0.00 | 44 | 1016.6 |
| 20260505174625 | 55 | 227 | 18.0 | 26.0 | 0.00 | 0.00 | 0.00 | 44 | 1016.6 |
| 20260505174510 | 55 | 360 | 16.0 | 26.0 | 0.00 | 0.00 | 0.00 | 44 | 1016.6 |
| 20260505174423 | 55 | 360 | 12.0 | 26.0 | 0.00 | 0.00 | 0.00 | 44 | 1016.6 |
| 20260505174317 | 55 | 360 | 11.0 | 21.0 | 0.00 | 0.00 | 0.00 | 44 | 1016.6 |
| 20260505174213 | 55 | 242 | 12.0 | 21.0 | 0.00 | 0.00 | 0.00 | 44 | 1016.6 |
| 20260505174123 | 55 | 360 | 12.0 | 21.0 | 0.00 | 0.00 | 0.00 | 44 | 1016.6 |
| 20260505174033 | 55 | 360 | 12.0 | 21.0 | 0.00 | 0.00 | 0.00 | 44 | 1016.6 |
| 20260505173929 | 55 | 234 | 13.0 | 21.0 | 0.00 | 0.00 | 0.00 | 44 | 1016.6 |
| 20260505173826 | 55 | 360 | 13.0 | 21.0 | 0.00 | 0.00 | 0.00 | 43 | 1016.6 |
| 20260505173722 | 55 | 360 | 13.0 | 21.0 | 0.00 | 0.00 | 0.00 | 43 | 1016.6 |
| 20260505173632 | 55 | 266 | 14.0 | 21.0 | 0.00 | 0.00 | 0.00 | 43 | 1016.6 |
| 20260505173522 | 55 | 360 | 16.0 | 21.0 | 0.00 | 0.00 | 0.00 | 43 | 1016.6 |
| 20260505173418 | 55 | 360 | 14.0 | 21.0 | 0.00 | 0.00 | 0.00 | 43 | 1016.6 |
| 20260505173328 | 55 | 248 | 13.0 | 21.0 | 0.00 | 0.00 | 0.00 | 43 | 1016.6 |
| 20260505173216 | 55 | 360 | 12.0 | 22.0 | 0.00 | 0.00 | 0.00 | 43 | 1016.6 |
| 20260505173129 | 55 | 360 | 11.0 | 22.0 | 0.00 | 0.00 | 0.00 | 42 | 1016.6 |
| 20260505173028 | 55 | 360 | 12.0 | 23.0 | 0.00 | 0.00 | 0.00 | 42 | 1016.4 |
| 20260505172918 | 55 | 266 | 13.0 | 23.0 | 0.00 | 0.00 | 0.00 | 42 | 1016.4 |
| 20260505172828 | 55 | 360 | 14.0 | 23.0 | 0.00 | 0.00 | 0.00 | 42 | 1016.4 |
| 20260505172725 | 56 | 254 | 16.0 | 23.0 | 0.00 | 0.00 | 0.00 | 42 | 1016.4 |
| 20260505172630 | 56 | 360 | 16.0 | 23.0 | 0.00 | 0.00 | 0.00 | 42 | 1016.4 |
| 20260505172540 | 56 | 202 | 16.0 | 23.0 | 0.00 | 0.00 | 0.00 | 42 | 1016.4 |
| 20260505172416 | 56 | 238 | 16.0 | 25.0 | 0.00 | 0.00 | 0.00 | 42 | 1016.4 |
| 20260505172326 | 56 | 235 | 16.0 | 25.0 | 0.00 | 0.00 | 0.00 | 42 | 1016.4 |
| 20260505172219 | 56 | 360 | 14.0 | 25.0 | 0.00 | 0.00 | 0.00 | 43 | 1016.4 |
| 20260505172133 | 56 | 239 | 13.0 | 25.0 | 0.00 | 0.00 | 0.00 | 43 | 1016.4 |
| 20260505172043 | 56 | 360 | 13.0 | 25.0 | 0.00 | 0.00 | 0.00 | 43 | 1016.4 |
| 20260505171922 | 56 | 238 | 15.0 | 25.0 | 0.00 | 0.00 | 0.00 | 43 | 1016.4 |
| 20260505171815 | 56 | 236 | 15.0 | 25.0 | 0.00 | 0.00 | 0.00 | 43 | 1016.4 |
| 20260505171716 | 56 | 229 | 16.0 | 25.0 | 0.00 | 0.00 | 0.00 | 42 | 1016.4 |
| 20260505171630 | 56 | 360 | 17.0 | 25.0 | 0.00 | 0.00 | 0.00 | 42 | 1016.4 |
| 20260505171529 | 56 | 360 | 16.0 | 25.0 | 0.00 | 0.00 | 0.00 | 42 | 1016.3 |
| 20260505171439 | 56 | 360 | 14.0 | 25.0 | 0.00 | 0.00 | 0.00 | 42 | 1016.3 |
| 20260505171321 | 56 | 231 | 14.0 | 25.0 | 0.00 | 0.00 | 0.00 | 42 | 1016.3 |
| 20260505171231 | 56 | 215 | 15.0 | 25.0 | 0.00 | 0.00 | 0.00 | 42 | 1016.3 |
| 20260505171130 | 56 | 220 | 15.0 | 25.0 | 0.00 | 0.00 | 0.00 | 42 | 1016.3 |
| 20260505171024 | 57 | 360 | 16.0 | 25.0 | 0.00 | 0.00 | 0.00 | 43 | 1016.3 |
| 20260505170917 | 57 | 360 | 15.0 | 25.0 | 0.00 | 0.00 | 0.00 | 43 | 1016.3 |
| 20260505170827 | 57 | 259 | 16.0 | 25.0 | 0.00 | 0.00 | 0.00 | 43 | 1016.3 |
| 20260505170737 | 57 | 360 | 16.0 | 26.0 | 0.00 | 0.00 | 0.00 | 43 | 1016.3 |
| 20260505170633 | 57 | 360 | 17.0 | 26.0 | 0.00 | 0.00 | 0.00 | 43 | 1016.3 |
| 20260505170527 | 57 | 225 | 15.0 | 26.0 | 0.00 | 0.00 | 0.00 | 43 | 1016.3 |
| 20260505170423 | 57 | 360 | 14.0 | 26.0 | 0.00 | 0.00 | 0.00 | 42 | 1016.3 |
| 20260505170319 | 57 | 237 | 16.0 | 26.0 | 0.00 | 0.00 | 0.00 | 41 | 1016.3 |
| 20260505170212 | 57 | 217 | 18.0 | 26.0 | 0.00 | 0.00 | 0.00 | 41 | 1016.3 |
| 20260505170136 | 57 | 360 | 18.0 | 26.0 | 0.00 | 0.00 | 0.00 | 41 | 1016.3 |
| 20260505170024 | 57 | 360 | 15.0 | 23.0 | 0.00 | 0.00 | 0.00 | 42 | 1016.3 |
| 20260505165918 | 57 | 230 | 17.0 | 23.0 | 0.00 | 0.00 | 0.00 | 41 | 1016.3 |
| 20260505165814 | 57 | 360 | 16.0 | 22.0 | 0.00 | 0.00 | 0.00 | 41 | 1016.3 |
| 20260505165744 | 57 | 252 | 15.0 | 22.0 | 0.00 | 0.00 | 0.00 | 41 | 1016.3 |
| 20260505165620 | 57 | 239 | 14.0 | 21.0 | 0.00 | 0.00 | 0.00 | 41 | 1016.3 |
| 20260505165530 | 56 | 360 | 15.0 | 21.0 | 0.00 | 0.00 | 0.00 | 41 | 1016.3 |
| 20260505165423 | 56 | 226 | 13.0 | 20.0 | 0.00 | 0.00 | 0.00 | 42 | 1016.3 |
| 20260505165320 | 56 | 360 | 11.0 | 20.0 | 0.00 | 0.00 | 0.00 | 42 | 1016.3 |
| 20260505165230 | 56 | 236 | 11.0 | 20.0 | 0.00 | 0.00 | 0.00 | 43 | 1016.3 |
| 20260505165120 | 56 | 232 | 12.0 | 21.0 | 0.00 | 0.00 | 0.00 | 43 | 1016.3 |
| 20260505165030 | 56 | 360 | 13.0 | 21.0 | 0.00 | 0.00 | 0.00 | 42 | 1016.3 |
| 20260505164923 | 55 | 215 | 14.0 | 23.0 | 0.00 | 0.00 | 0.00 | 42 | 1016.3 |
| 20260505164817 | 55 | 360 | 14.0 | 23.0 | 0.00 | 0.00 | 0.00 | 42 | 1016.3 |
| 20260505164724 | 55 | 360 | 14.0 | 23.0 | 0.00 | 0.00 | 0.00 | 42 | 1016.3 |
| 20260505164634 | 55 | 360 | 14.0 | 23.0 | 0.00 | 0.00 | 0.00 | 42 | 1016.3 |
| 20260505164516 | 55 | 228 | 14.0 | 23.0 | 0.00 | 0.00 | 0.00 | 43 | 1016.3 |
| 20260505164426 | 55 | 360 | 15.0 | 23.0 | 0.00 | 0.00 | 0.00 | 43 | 1016.3 |
| 20260505164323 | 55 | 360 | 16.0 | 23.0 | 0.00 | 0.00 | 0.00 | 42 | 1016.3 |
| 20260505164233 | 55 | 240 | 17.0 | 23.0 | 0.00 | 0.00 | 0.00 | 42 | 1016.3 |
| 20260505164129 | 55 | 197 | 16.0 | 23.0 | 0.00 | 0.00 | 0.00 | 42 | 1016.3 |
| 20260505164025 | 55 | 239 | 15.0 | 23.0 | 0.00 | 0.00 | 0.00 | 42 | 1016.3 |
| 20260505163924 | 55 | 236 | 12.0 | 19.0 | 0.00 | 0.00 | 0.00 | 41 | 1016.3 |
| 20260505163817 | 55 | 360 | 12.0 | 18.0 | 0.00 | 0.00 | 0.00 | 42 | 1016.3 |
| 20260505163731 | 55 | 360 | 12.0 | 18.0 | 0.00 | 0.00 | 0.00 | 42 | 1016.3 |
| 20260505163627 | 55 | 360 | 12.0 | 18.0 | 0.00 | 0.00 | 0.00 | 41 | 1016.3 |
| 20260505163537 | 55 | 224 | 12.0 | 18.0 | 0.00 | 0.00 | 0.00 | 41 | 1016.3 |
| 20260505163416 | 55 | 360 | 11.0 | 18.0 | 0.00 | 0.00 | 0.00 | 42 | 1016.3 |
| 20260505163329 | 55 | 244 | 11.0 | 21.0 | 0.00 | 0.00 | 0.00 | 42 | 1016.3 |
| 20260505163223 | 55 | 211 | 11.0 | 21.0 | 0.00 | 0.00 | 0.00 | 42 | 1016.3 |
| 20260505163133 | 55 | 360 | 11.0 | 21.0 | 0.00 | 0.00 | 0.00 | 42 | 1016.3 |
| 20260505163032 | 55 | 232 | 11.0 | 21.0 | 0.00 | 0.00 | 0.00 | 42 | 1016.3 |
| 20260505162931 | 55 | 243 | 11.0 | 21.0 | 0.00 | 0.00 | 0.00 | 42 | 1016.3 |
| 20260505162821 | 55 | 238 | 13.0 | 21.0 | 0.00 | 0.00 | 0.00 | 42 | 1016.3 |
| 20260505162731 | 55 | 360 | 15.0 | 21.0 | 0.00 | 0.00 | 0.00 | 42 | 1016.3 |
| 20260505162631 | 55 | 360 | 16.0 | 21.0 | 0.00 | 0.00 | 0.00 | 42 | 1016.3 |
| 20260505162527 | 55 | 238 | 14.0 | 21.0 | 0.00 | 0.00 | 0.00 | 42 | 1016.3 |
| 20260505162417 | 55 | 360 | 12.0 | 21.0 | 0.00 | 0.00 | 0.00 | 41 | 1016.3 |
| 20260505162325 | 54 | 227 | 11.0 | 22.0 | 0.00 | 0.00 | 0.00 | 41 | 1016.3 |
| 20260505162216 | 54 | 360 | 14.0 | 25.0 | 0.00 | 0.00 | 0.00 | 40 | 1016.3 |
| 20260505162132 | 54 | 229 | 15.0 | 25.0 | 0.00 | 0.00 | 0.00 | 40 | 1016.3 |
| 20260505162026 | 54 | 227 | 15.0 | 25.0 | 0.00 | 0.00 | 0.00 | 41 | 1016.3 |
| 20260505161919 | 54 | 360 | 15.0 | 25.0 | 0.00 | 0.00 | 0.00 | 41 | 1016.3 |
| 20260505161829 | 54 | 360 | 16.0 | 25.0 | 0.00 | 0.00 | 0.00 | 41 | 1016.3 |
| 20260505161719 | 54 | 360 | 16.0 | 25.0 | 0.00 | 0.00 | 0.00 | 42 | 1016.3 |
| 20260505161649 | 54 | 360 | 17.0 | 25.0 | 0.00 | 0.00 | 0.00 | 42 | 1016.3 |
| 20260505161520 | 54 | 360 | 18.0 | 28.0 | 0.00 | 0.00 | 0.00 | 42 | 1016.5 |
| 20260505161414 | 54 | 360 | 17.0 | 28.0 | 0.00 | 0.00 | 0.00 | 42 | 1016.5 |
| 20260505161324 | 54 | 236 | 17.0 | 28.0 | 0.00 | 0.00 | 0.00 | 42 | 1016.5 |
| 20260505161214 | 55 | 360 | 17.0 | 28.0 | 0.00 | 0.00 | 0.00 | 42 | 1016.5 |
| 20260505161127 | 55 | 222 | 17.0 | 28.0 | 0.00 | 0.00 | 0.00 | 42 | 1016.5 |
| 20260505161017 | 55 | 239 | 17.0 | 28.0 | 0.00 | 0.00 | 0.00 | 40 | 1016.5 |
| 20260505160931 | 55 | 360 | 18.0 | 28.0 | 0.00 | 0.00 | 0.00 | 39 | 1016.5 |
| 20260505160823 | 55 | 248 | 19.0 | 28.0 | 0.00 | 0.00 | 0.00 | 39 | 1016.5 |
| 20260505160733 | 55 | 233 | 17.0 | 28.0 | 0.00 | 0.00 | 0.00 | 39 | 1016.5 |
| 20260505160629 | 55 | 242 | 16.0 | 28.0 | 0.00 | 0.00 | 0.00 | 40 | 1016.5 |
| 20260505160528 | 55 | 215 | 15.0 | 22.0 | 0.00 | 0.00 | 0.00 | 39 | 1016.5 |
| 20260505160424 | 55 | 360 | 17.0 | 22.0 | 0.00 | 0.00 | 0.00 | 40 | 1016.5 |
| 20260505160318 | 55 | 232 | 15.0 | 22.0 | 0.00 | 0.00 | 0.00 | 40 | 1016.5 |
| 20260505160214 | 55 | 236 | 14.0 | 22.0 | 0.00 | 0.00 | 0.00 | 40 | 1016.5 |
| 20260505160136 | 55 | 216 | 14.0 | 22.0 | 0.00 | 0.00 | 0.00 | 40 | 1016.5 |
| 20260505153323 | 55 | 360 | 13.0 | 18.0 | 0.00 | 0.00 | 0.00 | 39 | 1016.4 |
| 20260505153224 | 55 | 360 | 13.0 | 18.0 | 0.00 | 0.00 | 0.00 | 39 | 1016.4 |
| 20260505153134 | 55 | 360 | 13.0 | 18.0 | 0.00 | 0.00 | 0.00 | 39 | 1016.4 |
| 20260505153020 | 55 | 360 | 12.0 | 18.0 | 0.00 | 0.00 | 0.00 | 40 | 1016.3 |
| 20260505152933 | 55 | 246 | 12.0 | 18.0 | 0.00 | 0.00 | 0.00 | 40 | 1016.3 |
| 20260505152823 | 55 | 360 | 12.0 | 20.0 | 0.00 | 0.00 | 0.00 | 40 | 1016.3 |
| 20260505152713 | 55 | 360 | 13.0 | 20.0 | 0.00 | 0.00 | 0.00 | 40 | 1016.3 |
| 20260505152646 | 55 | 211 | 13.0 | 20.0 | 0.00 | 0.00 | 0.00 | 40 | 1016.3 |
| 20260505152542 | 55 | 360 | 12.0 | 20.0 | 0.00 | 0.00 | 0.00 | 40 | 1016.3 |
| 20260505152445 | 55 | 360 | 12.0 | 20.0 | 0.00 | 0.00 | 0.00 | 40 | 1016.3 |
| 20260505152341 | 55 | 360 | 12.0 | 20.0 | 0.00 | 0.00 | 0.00 | 40 | 1016.3 |
| 20260505152217 | 55 | 225 | 12.0 | 20.0 | 0.00 | 0.00 | 0.00 | 40 | 1016.3 |
| 20260505152127 | 55 | 360 | 11.0 | 20.0 | 0.00 | 0.00 | 0.00 | 40 | 1016.3 |
| 20260505152020 | 55 | 191 | 10.0 | 16.0 | 0.00 | 0.00 | 0.00 | 41 | 1016.3 |
| 20260505151914 | 55 | 217 | 9.0 | 16.0 | 0.00 | 0.00 | 0.00 | 40 | 1016.3 |
| 20260505151844 | 55 | 360 | 9.0 | 16.0 | 0.00 | 0.00 | 0.00 | 41 | 1016.3 |
| 20260505151731 | 55 | 229 | 9.0 | 16.0 | 0.00 | 0.00 | 0.00 | 40 | 1016.3 |
| 20260505151627 | 55 | 217 | 10.0 | 16.0 | 0.00 | 0.00 | 0.00 | 40 | 1016.3 |
| 20260505151546 | 55 | 193 | 10.0 | 16.0 | 0.00 | 0.00 | 0.00 | 40 | 1016.3 |
| 20260505151422 | 55 | 193 | 8.0 | 17.0 | 0.00 | 0.00 | 0.00 | 40 | 1016.3 |
| 20260505151319 | 55 | 209 | 6.0 | 14.0 | 0.00 | 0.00 | 0.00 | 41 | 1016.3 |
| 20260505151229 | 55 | 238 | 7.0 | 14.0 | 0.00 | 0.00 | 0.00 | 41 | 1016.3 |
| 20260505151122 | 55 | 360 | 8.0 | 14.0 | 0.00 | 0.00 | 0.00 | 41 | 1016.3 |
| 20260505151035 | 55 | 221 | 8.0 | 14.0 | 0.00 | 0.00 | 0.00 | 41 | 1016.3 |
| 20260505150914 | 55 | 245 | 9.0 | 14.0 | 0.00 | 0.00 | 0.00 | 40 | 1016.3 |
| 20260505150827 | 55 | 232 | 9.0 | 15.0 | 0.00 | 0.00 | 0.00 | 41 | 1016.3 |
| 20260505150721 | 55 | 360 | 9.0 | 15.0 | 0.00 | 0.00 | 0.00 | 41 | 1016.3 |
| 20260505150631 | 55 | 360 | 10.0 | 15.0 | 0.00 | 0.00 | 0.00 | 41 | 1016.3 |
| 20260505150521 | 55 | 222 | 11.0 | 15.0 | 0.00 | 0.00 | 0.00 | 41 | 1016.3 |
| 20260505150431 | 55 | 221 | 10.0 | 15.0 | 0.00 | 0.00 | 0.00 | 41 | 1016.3 |
| 20260505150313 | 55 | 227 | 10.0 | 15.0 | 0.00 | 0.00 | 0.00 | 41 | 1016.3 |
| 20260505150221 | 55 | 360 | 11.0 | 15.0 | 0.00 | 0.00 | 0.00 | 41 | 1016.3 |
| 20260505150131 | 55 | 360 | 11.0 | 15.0 | 0.00 | 0.00 | 0.00 | 41 | 1016.3 |
| 20260505140625 | 55 | 360 | 11.0 | 18.0 | 0.00 | 0.00 | 0.00 | 43 | 1016.8 |
| 20260505140534 | 55 | 215 | 10.0 | 18.0 | 0.00 | 0.00 | 0.00 | 43 | 1016.8 |
| 20260505140430 | 55 | 226 | 10.0 | 18.0 | 0.00 | 0.00 | 0.00 | 43 | 1016.8 |
| 20260505140320 | 55 | 248 | 10.0 | 18.0 | 0.00 | 0.00 | 0.00 | 43 | 1016.8 |
| 20260505140216 | 55 | 228 | 12.0 | 24.0 | 0.00 | 0.00 | 0.00 | 43 | 1016.8 |
| 20260505140142 | 55 | 238 | 13.0 | 24.0 | 0.00 | 0.00 | 0.00 | 43 | 1016.8 |
| 20260505130219 | 56 | 235 | 10.0 | 19.0 | 0.00 | 0.00 | 0.00 | 40 | 1016.3 |
| 20260505130139 | 56 | 360 | 10.0 | 19.0 | 0.00 | 0.00 | 0.00 | 40 | 1016.3 |
| 20260505125020 | 56 | 226 | 12.0 | 19.0 | 0.00 | 0.00 | 0.00 | 39 | 1016.2 |
| 20260505124916 | 56 | 360 | 11.0 | 19.0 | 0.00 | 0.00 | 0.00 | 39 | 1016.2 |
| 20260505124830 | 56 | 360 | 11.0 | 19.0 | 0.00 | 0.00 | 0.00 | 39 | 1016.2 |
| 20260505124720 | 56 | 360 | 13.0 | 19.0 | 0.00 | 0.00 | 0.00 | 39 | 1016.2 |
| 20260505124641 | 56 | 242 | 13.0 | 19.0 | 0.00 | 0.00 | 0.00 | 39 | 1016.2 |
| 20260505124520 | 56 | 360 | 11.0 | 23.0 | 0.00 | 0.00 | 0.00 | 39 | 1016.2 |
| 20260505124430 | 56 | 360 | 9.0 | 23.0 | 0.00 | 0.00 | 0.00 | 39 | 1016.2 |
| 20260505124329 | 56 | 360 | 9.0 | 23.0 | 0.00 | 0.00 | 0.00 | 39 | 1016.2 |
| 20260505124223 | 56 | 218 | 9.0 | 23.0 | 0.00 | 0.00 | 0.00 | 38 | 1016.2 |
| 20260505124133 | 56 | 246 | 10.0 | 23.0 | 0.00 | 0.00 | 0.00 | 38 | 1016.2 |
| 20260505124029 | 56 | 246 | 11.0 | 23.0 | 0.00 | 0.00 | 0.00 | 38 | 1016.2 |
| 20260505123922 | 56 | 263 | 13.0 | 23.0 | 0.00 | 0.00 | 0.00 | 38 | 1016.2 |
| 20260505123818 | 56 | 360 | 16.0 | 23.0 | 0.00 | 0.00 | 0.00 | 39 | 1016.2 |
| 20260505123732 | 56 | 360 | 15.0 | 23.0 | 0.00 | 0.00 | 0.00 | 38 | 1016.2 |
| 20260505123622 | 56 | 243 | 15.0 | 23.0 | 0.00 | 0.00 | 0.00 | 38 | 1016.2 |
| 20260505123532 | 56 | 360 | 13.0 | 20.0 | 0.00 | 0.00 | 0.00 | 38 | 1016.2 |
| 20260505123422 | 56 | 262 | 12.0 | 20.0 | 0.00 | 0.00 | 0.00 | 38 | 1016.2 |
| 20260505123318 | 56 | 360 | 11.0 | 20.0 | 0.00 | 0.00 | 0.00 | 38 | 1016.2 |
| 20260505123214 | 56 | 238 | 12.0 | 20.0 | 0.00 | 0.00 | 0.00 | 38 | 1016.2 |
| 20260505123137 | 56 | 244 | 13.0 | 20.0 | 0.00 | 0.00 | 0.00 | 38 | 1016.2 |
| 20260505123036 | 56 | 360 | 15.0 | 20.0 | 0.00 | 0.00 | 0.00 | 38 | 1016.0 |
| 20260505122932 | 56 | 360 | 13.0 | 20.0 | 0.00 | 0.00 | 0.00 | 38 | 1016.0 |
| 20260505122829 | 56 | 360 | 13.0 | 20.0 | 0.00 | 0.00 | 0.00 | 38 | 1016.0 |
| 20260505122721 | 56 | 217 | 11.0 | 19.0 | 0.00 | 0.00 | 0.00 | 38 | 1016.0 |
| 20260505122631 | 56 | 253 | 12.0 | 19.0 | 0.00 | 0.00 | 0.00 | 38 | 1016.0 |
| 20260505122531 | 56 | 360 | 12.0 | 19.0 | 0.00 | 0.00 | 0.00 | 38 | 1016.0 |
| 20260505122421 | 56 | 360 | 13.0 | 19.0 | 0.00 | 0.00 | 0.00 | 38 | 1016.0 |
| 20260505122318 | 56 | 360 | 12.0 | 22.0 | 0.00 | 0.00 | 0.00 | 38 | 1016.0 |
| 20260505122227 | 56 | 360 | 12.0 | 22.0 | 0.00 | 0.00 | 0.00 | 38 | 1016.0 |
| 20260505122117 | 56 | 270 | 12.0 | 22.0 | 0.00 | 0.00 | 0.00 | 38 | 1016.0 |
| 20260505122011 | 56 | 360 | 13.0 | 22.0 | 0.00 | 0.00 | 0.00 | 38 | 1016.0 |
| 20260505121944 | 56 | 360 | 14.0 | 22.0 | 0.00 | 0.00 | 0.00 | 38 | 1016.0 |
| 20260505121820 | 56 | 360 | 14.0 | 22.0 | 0.00 | 0.00 | 0.00 | 38 | 1016.0 |
| 20260505121721 | 56 | 360 | 13.0 | 22.0 | 0.00 | 0.00 | 0.00 | 38 | 1016.0 |
| 20260505121651 | 56 | 360 | 12.0 | 22.0 | 0.00 | 0.00 | 0.00 | 38 | 1016.0 |
| 20260505121516 | 56 | 360 | 11.0 | 16.0 | 0.00 | 0.00 | 0.00 | 38 | 1015.7 |
| 20260505121430 | 56 | 261 | 10.0 | 16.0 | 0.00 | 0.00 | 0.00 | 38 | 1015.7 |
| 20260505121320 | 56 | 360 | 11.0 | 16.0 | 0.00 | 0.00 | 0.00 | 38 | 1015.7 |
| 20260505121231 | 56 | 360 | 11.0 | 16.0 | 0.00 | 0.00 | 0.00 | 38 | 1015.7 |
| 20260505121120 | 56 | 360 | 11.0 | 16.0 | 0.00 | 0.00 | 0.00 | 38 | 1015.7 |
| 20260505121030 | 56 | 360 | 10.0 | 16.0 | 0.00 | 0.00 | 0.00 | 38 | 1015.7 |
| 20260505120910 | 56 | 360 | 9.0 | 16.0 | 0.00 | 0.00 | 0.00 | 38 | 1015.7 |
| 20260505120823 | 56 | 360 | 9.0 | 14.0 | 0.00 | 0.00 | 0.00 | 38 | 1015.7 |
| 20260505120719 | 56 | 360 | 10.0 | 14.0 | 0.00 | 0.00 | 0.00 | 38 | 1015.7 |
| 20260505120629 | 56 | 229 | 10.0 | 14.0 | 0.00 | 0.00 | 0.00 | 38 | 1015.7 |
| 20260505120542 | 56 | 360 | 9.0 | 14.0 | 0.00 | 0.00 | 0.00 | 38 | 1015.7 |
| 20260505120418 | 56 | 261 | 9.0 | 14.0 | 0.00 | 0.00 | 0.00 | 38 | 1015.7 |
| 20260505120332 | 56 | 360 | 9.0 | 14.0 | 0.00 | 0.00 | 0.00 | 37 | 1015.7 |
| 20260505120219 | 56 | 275 | 9.0 | 15.0 | 0.00 | 0.00 | 0.00 | 37 | 1015.7 |
| 20260505120129 | 56 | 267 | 9.0 | 15.0 | 0.00 | 0.00 | 0.00 | 37 | 1015.7 |
| 20260505120017 | 56 | 263 | 9.0 | 15.0 | 0.00 | 0.00 | 0.00 | 37 | 1015.9 |
| 20260505115927 | 56 | 258 | 10.0 | 15.0 | 0.00 | 0.00 | 0.00 | 37 | 1015.9 |
| 20260505115823 | 56 | 247 | 10.0 | 15.0 | 0.00 | 0.00 | 0.00 | 37 | 1015.9 |
| 20260505115737 | 56 | 242 | 10.0 | 15.0 | 0.00 | 0.00 | 0.00 | 37 | 1015.9 |
| 20260505115613 | 56 | 360 | 10.0 | 15.0 | 0.00 | 0.00 | 0.00 | 37 | 1015.9 |
| 20260505115523 | 56 | 256 | 10.0 | 15.0 | 0.00 | 0.00 | 0.00 | 37 | 1015.9 |
| 20260505115416 | 56 | 360 | 10.0 | 15.0 | 0.00 | 0.00 | 0.00 | 37 | 1015.9 |
| 20260505115326 | 56 | 360 | 10.0 | 15.0 | 0.00 | 0.00 | 0.00 | 37 | 1015.9 |
| 20260505115220 | 56 | 360 | 10.0 | 15.0 | 0.00 | 0.00 | 0.00 | 37 | 1015.9 |
| 20260505115130 | 56 | 360 | 9.0 | 16.0 | 0.00 | 0.00 | 0.00 | 37 | 1015.9 |
| 20260505115026 | 56 | 360 | 9.0 | 16.0 | 0.00 | 0.00 | 0.00 | 37 | 1015.9 |
| 20260505114922 | 56 | 360 | 10.0 | 16.0 | 0.00 | 0.00 | 0.00 | 37 | 1015.9 |
| 20260505114815 | 56 | 360 | 9.0 | 16.0 | 0.00 | 0.00 | 0.00 | 37 | 1015.9 |
| 20260505114722 | 56 | 260 | 9.0 | 16.0 | 0.00 | 0.00 | 0.00 | 37 | 1015.9 |
| 20260505114632 | 56 | 263 | 9.0 | 16.0 | 0.00 | 0.00 | 0.00 | 37 | 1015.9 |
| 20260505114510 | 56 | 242 | 10.0 | 16.0 | 0.00 | 0.00 | 0.00 | 36 | 1016.1 |
| 20260505114430 | 56 | 360 | 11.0 | 16.0 | 0.00 | 0.00 | 0.00 | 36 | 1016.1 |
| 20260505114322 | 56 | 360 | 11.0 | 16.0 | 0.00 | 0.00 | 0.00 | 36 | 1016.1 |
| 20260505114218 | 56 | 360 | 10.0 | 21.0 | 0.00 | 0.00 | 0.00 | 36 | 1016.1 |
| 20260505114132 | 56 | 360 | 11.0 | 21.0 | 0.00 | 0.00 | 0.00 | 36 | 1016.1 |
| 20260505114022 | 56 | 254 | 11.0 | 21.0 | 0.00 | 0.00 | 0.00 | 36 | 1016.1 |
| 20260505113932 | 56 | 248 | 11.0 | 21.0 | 0.00 | 0.00 | 0.00 | 36 | 1016.1 |
| 20260505113828 | 56 | 266 | 11.0 | 21.0 | 0.00 | 0.00 | 0.00 | 36 | 1016.1 |
| 20260505113721 | 56 | 360 | 12.0 | 21.0 | 0.00 | 0.00 | 0.00 | 36 | 1016.1 |
| 20260505113631 | 56 | 244 | 12.0 | 21.0 | 0.00 | 0.00 | 0.00 | 36 | 1016.1 |
| 20260505113511 | 56 | 263 | 13.0 | 21.0 | 0.00 | 0.00 | 0.00 | 36 | 1016.1 |
| 20260505113430 | 56 | 360 | 13.0 | 21.0 | 0.00 | 0.00 | 0.00 | 36 | 1016.1 |
| 20260505113340 | 56 | 360 | 12.0 | 21.0 | 0.00 | 0.00 | 0.00 | 37 | 1016.1 |
| 20260505113216 | 56 | 360 | 10.0 | 18.0 | 0.00 | 0.00 | 0.00 | 37 | 1016.1 |
| 20260505113145 | 56 | 261 | 10.0 | 18.0 | 0.00 | 0.00 | 0.00 | 37 | 1016.1 |
| 20260505113029 | 56 | 242 | 10.0 | 18.0 | 0.00 | 0.00 | 0.00 | 37 | 1016.1 |
| 20260505112925 | 56 | 246 | 12.0 | 18.0 | 0.00 | 0.00 | 0.00 | 36 | 1016.1 |
| 20260505112815 | 56 | 240 | 13.0 | 18.0 | 0.00 | 0.00 | 0.00 | 36 | 1016.1 |
| 20260505112712 | 56 | 360 | 13.0 | 18.0 | 0.00 | 0.00 | 0.00 | 36 | 1016.1 |
| 20260505112644 | 56 | 360 | 12.0 | 18.0 | 0.00 | 0.00 | 0.00 | 37 | 1016.1 |
| 20260505112520 | 56 | 257 | 11.0 | 19.0 | 0.00 | 0.00 | 0.00 | 36 | 1016.1 |
| 20260505112414 | 56 | 360 | 12.0 | 19.0 | 0.00 | 0.00 | 0.00 | 36 | 1016.1 |
| 20260505112324 | 57 | 232 | 13.0 | 19.0 | 0.00 | 0.00 | 0.00 | 36 | 1016.1 |
| 20260505112214 | 57 | 235 | 13.0 | 20.0 | 0.00 | 0.00 | 0.00 | 36 | 1016.1 |
| 20260505112130 | 56 | 360 | 12.0 | 20.0 | 0.00 | 0.00 | 0.00 | 36 | 1016.1 |
| 20260505112026 | 57 | 360 | 12.0 | 20.0 | 0.00 | 0.00 | 0.00 | 36 | 1016.1 |
| 20260505111916 | 57 | 360 | 11.0 | 20.0 | 0.00 | 0.00 | 0.00 | 36 | 1016.1 |
| 20260505111830 | 57 | 360 | 13.0 | 20.0 | 0.00 | 0.00 | 0.00 | 36 | 1016.1 |
| 20260505111731 | 57 | 360 | 13.0 | 23.0 | 0.00 | 0.00 | 0.00 | 36 | 1016.1 |
| 20260505111627 | 57 | 254 | 14.0 | 23.0 | 0.00 | 0.00 | 0.00 | 36 | 1016.1 |
| 20260505111526 | 57 | 360 | 13.0 | 23.0 | 0.00 | 0.00 | 0.00 | 36 | 1016.0 |
| 20260505111416 | 57 | 360 | 12.0 | 23.0 | 0.00 | 0.00 | 0.00 | 36 | 1016.0 |
| 20260505111326 | 57 | 360 | 11.0 | 23.0 | 0.00 | 0.00 | 0.00 | 36 | 1016.0 |
| 20260505111220 | 57 | 360 | 10.0 | 23.0 | 0.00 | 0.00 | 0.00 | 36 | 1016.0 |
| 20260505111130 | 57 | 244 | 11.0 | 23.0 | 0.00 | 0.00 | 0.00 | 36 | 1016.0 |
| 20260505111020 | 57 | 360 | 14.0 | 23.0 | 0.00 | 0.00 | 0.00 | 36 | 1016.0 |
| 20260505110933 | 57 | 360 | 15.0 | 23.0 | 0.00 | 0.00 | 0.00 | 36 | 1016.0 |
| 20260505110815 | 57 | 360 | 14.0 | 23.0 | 0.00 | 0.00 | 0.00 | 36 | 1016.0 |
| 20260505110729 | 57 | 360 | 14.0 | 23.0 | 0.00 | 0.00 | 0.00 | 36 | 1016.0 |
| 20260505110618 | 57 | 360 | 15.0 | 23.0 | 0.00 | 0.00 | 0.00 | 36 | 1016.0 |
| 20260505110528 | 57 | 360 | 16.0 | 23.0 | 0.00 | 0.00 | 0.00 | 36 | 1016.0 |
| 20260505110427 | 57 | 360 | 17.0 | 23.0 | 0.00 | 0.00 | 0.00 | 36 | 1016.0 |
| 20260505110324 | 57 | 244 | 16.0 | 23.0 | 0.00 | 0.00 | 0.00 | 36 | 1016.0 |
| 20260505110223 | 57 | 360 | 15.0 | 23.0 | 0.00 | 0.00 | 0.00 | 36 | 1016.0 |
| 20260505110143 | 57 | 360 | 14.0 | 23.0 | 0.00 | 0.00 | 0.00 | 36 | 1016.0 |
| 20260505102132 | 57 | 249 | 8.0 | 13.0 | 0.00 | 0.00 | 0.00 | 37 | 1016.0 |
| 20260505102032 | 57 | 265 | 9.0 | 13.0 | 0.00 | 0.00 | 0.00 | 37 | 1016.0 |
| 20260505101922 | 57 | 360 | 10.0 | 13.0 | 0.00 | 0.00 | 0.00 | 37 | 1016.0 |
| 20260505101816 | 57 | 360 | 10.0 | 12.0 | 0.00 | 0.00 | 0.00 | 37 | 1016.0 |
| 20260505101728 | 57 | 360 | 10.0 | 12.0 | 0.00 | 0.00 | 0.00 | 37 | 1016.0 |
| 20260505101634 | 57 | 252 | 9.0 | 12.0 | 0.00 | 0.00 | 0.00 | 37 | 1016.0 |
| 20260505101523 | 57 | 257 | 9.0 | 12.0 | 0.00 | 0.00 | 0.00 | 37 | 1015.8 |
| 20260505101413 | 57 | 360 | 8.0 | 12.0 | 0.00 | 0.00 | 0.00 | 37 | 1015.8 |
| 20260505101323 | 57 | 225 | 7.0 | 10.0 | 0.00 | 0.00 | 0.00 | 37 | 1015.8 |
| 20260505101233 | 57 | 213 | 6.0 | 9.0 | 0.00 | 0.00 | 0.00 | 36 | 1015.8 |
| 20260505101143 | 57 | 243 | 6.0 | 9.0 | 0.00 | 0.00 | 0.00 | 36 | 1015.8 |
| 20260505101025 | 57 | 360 | 6.0 | 9.0 | 0.00 | 0.00 | 0.00 | 36 | 1015.8 |
| 20260505100919 | 57 | 219 | 6.0 | 9.0 | 0.00 | 0.00 | 0.00 | 36 | 1015.8 |
| 20260505100829 | 57 | 221 | 6.0 | 9.0 | 0.00 | 0.00 | 0.00 | 36 | 1015.8 |
| 20260505100722 | 57 | 211 | 6.0 | 9.0 | 0.00 | 0.00 | 0.00 | 36 | 1015.8 |
| 20260505100632 | 57 | 210 | 6.0 | 9.0 | 0.00 | 0.00 | 0.00 | 36 | 1015.8 |
| 20260505100522 | 57 | 219 | 6.0 | 9.0 | 0.00 | 0.00 | 0.00 | 36 | 1015.8 |
| 20260505100419 | 57 | 223 | 7.0 | 9.0 | 0.00 | 0.00 | 0.00 | 36 | 1015.8 |
| 20260505100329 | 57 | 219 | 6.0 | 9.0 | 0.00 | 0.00 | 0.00 | 36 | 1015.8 |
| 20260505100218 | 58 | 213 | 5.0 | 7.0 | 0.00 | 0.00 | 0.00 | 35 | 1015.8 |
| 20260505100126 | 58 | 212 | 5.0 | 7.0 | 0.00 | 0.00 | 0.00 | 35 | 1015.8 |
| 20260505100025 | 58 | 212 | 5.0 | 7.0 | 0.00 | 0.00 | 0.00 | 35 | 1016.1 |
| 20260505095922 | 58 | 212 | 5.0 | 7.0 | 0.00 | 0.00 | 0.00 | 35 | 1016.1 |
| 20260505095831 | 58 | 212 | 5.0 | 7.0 | 0.00 | 0.00 | 0.00 | 35 | 1016.1 |
| 20260505095727 | 58 | 212 | 5.0 | 7.0 | 0.00 | 0.00 | 0.00 | 35 | 1016.1 |
| 20260505095617 | 58 | 212 | 6.0 | 7.0 | 0.00 | 0.00 | 0.00 | 35 | 1016.1 |
| 20260505095527 | 58 | 215 | 6.0 | 8.0 | 0.00 | 0.00 | 0.00 | 35 | 1016.1 |
| 20260505095420 | 58 | 218 | 5.0 | 8.0 | 0.00 | 0.00 | 0.00 | 35 | 1016.1 |
| 20260505095314 | 58 | 219 | 5.0 | 8.0 | 0.00 | 0.00 | 0.00 | 35 | 1016.1 |
| 20260505095227 | 58 | 219 | 4.0 | 10.0 | 0.00 | 0.00 | 0.00 | 35 | 1016.1 |
| 20260505095120 | 58 | 219 | 4.0 | 10.0 | 0.00 | 0.00 | 0.00 | 35 | 1016.1 |
| 20260505095016 | 58 | 219 | 5.0 | 10.0 | 0.00 | 0.00 | 0.00 | 35 | 1016.1 |
| 20260505094932 | 58 | 219 | 6.0 | 10.0 | 0.00 | 0.00 | 0.00 | 35 | 1016.1 |
| 20260505094826 | 58 | 219 | 6.0 | 10.0 | 0.00 | 0.00 | 0.00 | 35 | 1016.1 |
| 20260505094713 | 58 | 224 | 6.0 | 10.0 | 0.00 | 0.00 | 0.00 | 35 | 1016.1 |
| 20260505094625 | 58 | 211 | 6.0 | 10.0 | 0.00 | 0.00 | 0.00 | 35 | 1016.1 |
| 20260505094530 | 58 | 211 | 7.0 | 10.0 | 0.00 | 0.00 | 0.00 | 35 | 1016.2 |
| 20260505094420 | 58 | 227 | 8.0 | 10.0 | 0.00 | 0.00 | 0.00 | 35 | 1016.2 |
| 20260505094330 | 58 | 214 | 8.0 | 10.0 | 0.00 | 0.00 | 0.00 | 35 | 1016.2 |
| 20260505094226 | 58 | 211 | 7.0 | 11.0 | 0.00 | 0.00 | 0.00 | 34 | 1016.2 |
| 20260505094117 | 58 | 238 | 7.0 | 11.0 | 0.00 | 0.00 | 0.00 | 34 | 1016.2 |
| 20260505094030 | 58 | 225 | 7.0 | 11.0 | 0.00 | 0.00 | 0.00 | 34 | 1016.2 |
| 20260505093939 | 58 | 207 | 7.0 | 13.0 | 0.00 | 0.00 | 0.00 | 34 | 1016.2 |
| 20260505093821 | 58 | 360 | 6.0 | 13.0 | 0.00 | 0.00 | 0.00 | 34 | 1016.2 |
| 20260505093715 | 58 | 225 | 5.0 | 13.0 | 0.00 | 0.00 | 0.00 | 34 | 1016.2 |
| 20260505093625 | 58 | 228 | 5.0 | 13.0 | 0.00 | 0.00 | 0.00 | 34 | 1016.2 |
| 20260505093521 | 58 | 230 | 6.0 | 13.0 | 0.00 | 0.00 | 0.00 | 34 | 1016.2 |
| 20260505093431 | 58 | 231 | 7.0 | 13.0 | 0.00 | 0.00 | 0.00 | 34 | 1016.2 |
| 20260505093328 | 58 | 221 | 7.0 | 13.0 | 0.00 | 0.00 | 0.00 | 34 | 1016.2 |
| 20260505093220 | 58 | 243 | 8.0 | 13.0 | 0.00 | 0.00 | 0.00 | 34 | 1016.2 |
| 20260505093125 | 58 | 248 | 9.0 | 16.0 | 0.00 | 0.00 | 0.00 | 34 | 1016.2 |
| 20260505093044 | 58 | 360 | 8.0 | 17.0 | 0.00 | 0.00 | 0.00 | 34 | 1016.3 |
| 20260505092920 | 58 | 236 | 8.0 | 17.0 | 0.00 | 0.00 | 0.00 | 34 | 1016.3 |
| 20260505092830 | 58 | 360 | 9.0 | 17.0 | 0.00 | 0.00 | 0.00 | 34 | 1016.3 |
| 20260505092723 | 58 | 360 | 10.0 | 17.0 | 0.00 | 0.00 | 0.00 | 34 | 1016.3 |
| 20260505092617 | 58 | 217 | 10.0 | 17.0 | 0.00 | 0.00 | 0.00 | 34 | 1016.3 |
| 20260505092527 | 58 | 360 | 10.0 | 17.0 | 0.00 | 0.00 | 0.00 | 34 | 1016.3 |
| 20260505092423 | 58 | 236 | 11.0 | 17.0 | 0.00 | 0.00 | 0.00 | 34 | 1016.3 |
| 20260505092333 | 58 | 360 | 12.0 | 17.0 | 0.00 | 0.00 | 0.00 | 34 | 1016.3 |
| 20260505092229 | 58 | 360 | 13.0 | 17.0 | 0.00 | 0.00 | 0.00 | 34 | 1016.3 |
| 20260505092125 | 58 | 360 | 12.0 | 16.0 | 0.00 | 0.00 | 0.00 | 34 | 1016.3 |
| 20260505092021 | 58 | 360 | 11.0 | 15.0 | 0.00 | 0.00 | 0.00 | 33 | 1016.3 |
| 20260505091918 | 58 | 231 | 10.0 | 15.0 | 0.00 | 0.00 | 0.00 | 33 | 1016.3 |
| 20260505091814 | 58 | 360 | 10.0 | 15.0 | 0.00 | 0.00 | 0.00 | 33 | 1016.3 |
| 20260505091735 | 58 | 360 | 10.0 | 16.0 | 0.00 | 0.00 | 0.00 | 33 | 1016.3 |
| 20260505091651 | 58 | 360 | 10.0 | 16.0 | 0.00 | 0.00 | 0.00 | 33 | 1016.3 |
| 20260505091516 | 58 | 360 | 11.0 | 16.0 | 0.00 | 0.00 | 0.00 | 33 | 1016.3 |
| 20260505091432 | 58 | 212 | 11.0 | 16.0 | 0.00 | 0.00 | 0.00 | 33 | 1016.3 |
| 20260505091325 | 58 | 360 | 10.0 | 16.0 | 0.00 | 0.00 | 0.00 | 33 | 1016.3 |
| 20260505091236 | 58 | 360 | 7.0 | 16.0 | 0.00 | 0.00 | 0.00 | 33 | 1016.3 |
| 20260505091118 | 58 | 207 | 8.0 | 16.0 | 0.00 | 0.00 | 0.00 | 33 | 1016.3 |
| 20260505091027 | 58 | 246 | 10.0 | 16.0 | 0.00 | 0.00 | 0.00 | 33 | 1016.3 |
| 20260505090924 | 58 | 230 | 10.0 | 16.0 | 0.00 | 0.00 | 0.00 | 33 | 1016.3 |
| 20260505090813 | 58 | 360 | 8.0 | 12.0 | 0.00 | 0.00 | 0.00 | 33 | 1016.3 |
| 20260505090727 | 58 | 253 | 8.0 | 12.0 | 0.00 | 0.00 | 0.00 | 33 | 1016.3 |
| 20260505090620 | 58 | 238 | 7.0 | 11.0 | 0.00 | 0.00 | 0.00 | 33 | 1016.3 |
| 20260505090530 | 58 | 244 | 7.0 | 11.0 | 0.00 | 0.00 | 0.00 | 33 | 1016.3 |
| 20260505090420 | 58 | 360 | 7.0 | 11.0 | 0.00 | 0.00 | 0.00 | 33 | 1016.3 |
| 20260505090313 | 58 | 360 | 7.0 | 12.0 | 0.00 | 0.00 | 0.00 | 34 | 1016.3 |
| 20260505090219 | 58 | 221 | 8.0 | 12.0 | 0.00 | 0.00 | 0.00 | 34 | 1016.3 |
| 20260505090149 | 58 | 360 | 8.0 | 12.0 | 0.00 | 0.00 | 0.00 | 34 | 1016.3 |
| 20260505090014 | 58 | 238 | 8.0 | 12.0 | 0.00 | 0.00 | 0.00 | 34 | 1016.6 |
| 20260505085927 | 58 | 222 | 7.0 | 12.0 | 0.00 | 0.00 | 0.00 | 34 | 1016.6 |
| 20260505085837 | 58 | 236 | 8.0 | 12.0 | 0.00 | 0.00 | 0.00 | 34 | 1016.6 |
| 20260505085717 | 58 | 224 | 8.0 | 12.0 | 0.00 | 0.00 | 0.00 | 34 | 1016.6 |
| 20260505085627 | 58 | 242 | 8.0 | 12.0 | 0.00 | 0.00 | 0.00 | 34 | 1016.6 |
| 20260505085532 | 58 | 238 | 8.0 | 12.0 | 0.00 | 0.00 | 0.00 | 35 | 1016.6 |
| 20260505085422 | 58 | 205 | 7.0 | 8.0 | 0.00 | 0.00 | 0.00 | 35 | 1016.6 |
| 20260505085318 | 58 | 204 | 6.0 | 7.0 | 0.00 | 0.00 | 0.00 | 35 | 1016.6 |
| 20260505085228 | 58 | 201 | 5.0 | 7.0 | 0.00 | 0.00 | 0.00 | 35 | 1016.6 |
| 20260505085122 | 58 | 213 | 6.0 | 7.0 | 0.00 | 0.00 | 0.00 | 34 | 1016.6 |
| 20260505085018 | 58 | 211 | 6.0 | 7.0 | 0.00 | 0.00 | 0.00 | 34 | 1016.6 |
| 20260505084927 | 58 | 211 | 6.0 | 7.0 | 0.00 | 0.00 | 0.00 | 35 | 1016.6 |
| 20260505084818 | 58 | 212 | 6.0 | 7.0 | 0.00 | 0.00 | 0.00 | 35 | 1016.6 |
| 20260505084719 | 58 | 212 | 6.0 | 7.0 | 0.00 | 0.00 | 0.00 | 35 | 1016.6 |
| 20260505084649 | 58 | 209 | 6.0 | 7.0 | 0.00 | 0.00 | 0.00 | 35 | 1016.6 |
| 20260505084517 | 58 | 211 | 6.0 | 7.0 | 0.00 | 0.00 | 0.00 | 34 | 1016.7 |
| 20260505084410 | 58 | 211 | 6.0 | 7.0 | 0.00 | 0.00 | 0.00 | 34 | 1016.7 |
| 20260505084330 | 58 | 223 | 6.0 | 7.0 | 0.00 | 0.00 | 0.00 | 34 | 1016.7 |
| 20260505084239 | 58 | 229 | 5.0 | 7.0 | 0.00 | 0.00 | 0.00 | 34 | 1016.7 |
| 20260505084115 | 58 | 234 | 5.0 | 8.0 | 0.00 | 0.00 | 0.00 | 34 | 1016.7 |
| 20260505084025 | 58 | 237 | 5.0 | 8.0 | 0.00 | 0.00 | 0.00 | 34 | 1016.7 |
| 20260505083922 | 58 | 240 | 5.0 | 8.0 | 0.00 | 0.00 | 0.00 | 34 | 1016.7 |
| 20260505083832 | 58 | 240 | 5.0 | 8.0 | 0.00 | 0.00 | 0.00 | 34 | 1016.7 |
| 20260505083722 | 59 | 241 | 5.0 | 10.0 | 0.00 | 0.00 | 0.00 | 34 | 1016.7 |
| 20260505083618 | 59 | 241 | 5.0 | 10.0 | 0.00 | 0.00 | 0.00 | 34 | 1016.7 |
| 20260505083528 | 59 | 242 | 5.0 | 10.0 | 0.00 | 0.00 | 0.00 | 33 | 1016.7 |
| 20260505083425 | 59 | 242 | 6.0 | 10.0 | 0.00 | 0.00 | 0.00 | 33 | 1016.7 |
| 20260505083315 | 59 | 240 | 6.0 | 10.0 | 0.00 | 0.00 | 0.00 | 33 | 1016.7 |
| 20260505083218 | 59 | 240 | 6.0 | 10.0 | 0.00 | 0.00 | 0.00 | 33 | 1016.7 |
| 20260505083128 | 59 | 239 | 6.0 | 10.0 | 0.00 | 0.00 | 0.00 | 33 | 1016.7 |
| 20260505083026 | 59 | 241 | 7.0 | 10.0 | 0.00 | 0.00 | 0.00 | 33 | 1016.8 |
| 20260505082927 | 59 | 238 | 7.0 | 10.0 | 0.00 | 0.00 | 0.00 | 33 | 1016.8 |
| 20260505082819 | 59 | 234 | 7.0 | 10.0 | 0.00 | 0.00 | 0.00 | 33 | 1016.8 |
| 20260505082729 | 59 | 228 | 7.0 | 10.0 | 0.00 | 0.00 | 0.00 | 33 | 1016.8 |
| 20260505082626 | 59 | 227 | 6.0 | 14.0 | 0.00 | 0.00 | 0.00 | 33 | 1016.8 |
| 20260505082515 | 59 | 360 | 6.0 | 14.0 | 0.00 | 0.00 | 0.00 | 33 | 1016.8 |
| 20260505082428 | 59 | 259 | 6.0 | 14.0 | 0.00 | 0.00 | 0.00 | 33 | 1016.8 |
| 20260505082322 | 59 | 239 | 6.0 | 14.0 | 0.00 | 0.00 | 0.00 | 33 | 1016.8 |
| 20260505082218 | 59 | 226 | 6.0 | 14.0 | 0.00 | 0.00 | 0.00 | 33 | 1016.8 |
| 20260505082128 | 59 | 230 | 7.0 | 14.0 | 0.00 | 0.00 | 0.00 | 33 | 1016.8 |
| 20260505082018 | 59 | 217 | 7.0 | 15.0 | 0.00 | 0.00 | 0.00 | 33 | 1016.8 |
| 20260505081931 | 59 | 225 | 8.0 | 15.0 | 0.00 | 0.00 | 0.00 | 33 | 1016.8 |
| 20260505081825 | 59 | 229 | 9.0 | 15.0 | 0.00 | 0.00 | 0.00 | 33 | 1016.8 |
| 20260505081715 | 59 | 360 | 10.0 | 15.0 | 0.00 | 0.00 | 0.00 | 33 | 1016.8 |
| 20260505081635 | 59 | 239 | 10.0 | 15.0 | 0.00 | 0.00 | 0.00 | 33 | 1016.8 |
| 20260505081517 | 59 | 360 | 10.0 | 15.0 | 0.00 | 0.00 | 0.00 | 33 | 1016.9 |
| 20260505081427 | 59 | 234 | 11.0 | 15.0 | 0.00 | 0.00 | 0.00 | 33 | 1016.9 |
| 20260505081324 | 59 | 245 | 11.0 | 15.0 | 0.00 | 0.00 | 0.00 | 33 | 1016.9 |
| 20260505081214 | 59 | 360 | 11.0 | 15.0 | 0.00 | 0.00 | 0.00 | 33 | 1016.9 |
| 20260505081127 | 59 | 261 | 11.0 | 15.0 | 0.00 | 0.00 | 0.00 | 33 | 1016.9 |
| 20260505081017 | 59 | 360 | 10.0 | 15.0 | 0.00 | 0.00 | 0.00 | 32 | 1016.9 |
| 20260505080927 | 59 | 360 | 9.0 | 15.0 | 0.00 | 0.00 | 0.00 | 33 | 1016.9 |
| 20260505080827 | 59 | 260 | 8.0 | 14.0 | 0.00 | 0.00 | 0.00 | 32 | 1016.9 |
| 20260505080737 | 59 | 247 | 8.0 | 17.0 | 0.00 | 0.00 | 0.00 | 32 | 1016.9 |
| 20260505080633 | 59 | 232 | 8.0 | 17.0 | 0.00 | 0.00 | 0.00 | 32 | 1016.9 |
| 20260505080522 | 59 | 261 | 8.0 | 17.0 | 0.00 | 0.00 | 0.00 | 32 | 1016.9 |
| 20260505080432 | 59 | 360 | 9.0 | 18.0 | 0.00 | 0.00 | 0.00 | 32 | 1016.9 |
| 20260505080328 | 59 | 229 | 9.0 | 18.0 | 0.00 | 0.00 | 0.00 | 32 | 1016.9 |
| 20260505080216 | 59 | 245 | 10.0 | 18.0 | 0.00 | 0.00 | 0.00 | 32 | 1016.9 |
| 20260505080132 | 59 | 240 | 10.0 | 18.0 | 0.00 | 0.00 | 0.00 | 32 | 1016.9 |
| 20260505080033 | 59 | 360 | 12.0 | 18.0 | 0.00 | 0.00 | 0.00 | 32 | 1016.8 |
| 20260505075928 | 59 | 360 | 13.0 | 18.0 | 0.00 | 0.00 | 0.00 | 32 | 1016.8 |
| 20260505075838 | 59 | 360 | 13.0 | 18.0 | 0.00 | 0.00 | 0.00 | 32 | 1016.8 |
| 20260505075714 | 59 | 240 | 12.0 | 18.0 | 0.00 | 0.00 | 0.00 | 32 | 1016.8 |
| 20260505075628 | 59 | 360 | 12.0 | 18.0 | 0.00 | 0.00 | 0.00 | 32 | 1016.8 |
| 20260505075521 | 59 | 235 | 11.0 | 16.0 | 0.00 | 0.00 | 0.00 | 32 | 1016.8 |
| 20260505075431 | 59 | 247 | 12.0 | 17.0 | 0.00 | 0.00 | 0.00 | 32 | 1016.8 |
| 20260505075327 | 59 | 217 | 10.0 | 17.0 | 0.00 | 0.00 | 0.00 | 33 | 1016.8 |
| 20260505075217 | 59 | 237 | 10.0 | 17.0 | 0.00 | 0.00 | 0.00 | 33 | 1016.8 |
| 20260505075114 | 59 | 245 | 10.0 | 21.0 | 0.00 | 0.00 | 0.00 | 33 | 1016.8 |
| 20260505075024 | 59 | 222 | 11.0 | 21.0 | 0.00 | 0.00 | 0.00 | 33 | 1016.8 |
| 20260505074914 | 59 | 275 | 11.0 | 21.0 | 0.00 | 0.00 | 0.00 | 32 | 1016.8 |
| 20260505074830 | 59 | 360 | 11.0 | 21.0 | 0.00 | 0.00 | 0.00 | 32 | 1016.8 |
| 20260505074720 | 59 | 259 | 12.0 | 21.0 | 0.00 | 0.00 | 0.00 | 32 | 1016.8 |
| 20260505074625 | 59 | 244 | 12.0 | 21.0 | 0.00 | 0.00 | 0.00 | 33 | 1016.8 |
| 20260505074530 | 59 | 246 | 13.0 | 21.0 | 0.00 | 0.00 | 0.00 | 33 | 1016.5 |
| 20260505074423 | 58 | 360 | 13.0 | 21.0 | 0.00 | 0.00 | 0.00 | 33 | 1016.5 |
| 20260505074332 | 58 | 240 | 13.0 | 21.0 | 0.00 | 0.00 | 0.00 | 33 | 1016.5 |
| 20260505074242 | 58 | 360 | 13.0 | 21.0 | 0.00 | 0.00 | 0.00 | 33 | 1016.5 |
| 20260505074138 | 58 | 360 | 13.0 | 21.0 | 0.00 | 0.00 | 0.00 | 33 | 1016.5 |
| 20260505074018 | 58 | 360 | 11.0 | 19.0 | 0.00 | 0.00 | 0.00 | 34 | 1016.5 |
| 20260505073928 | 58 | 360 | 11.0 | 18.0 | 0.00 | 0.00 | 0.00 | 34 | 1016.5 |
| 20260505073845 | 58 | 360 | 10.0 | 18.0 | 0.00 | 0.00 | 0.00 | 34 | 1016.5 |
| 20260505073740 | 58 | 228 | 10.0 | 18.0 | 0.00 | 0.00 | 0.00 | 34 | 1016.5 |
| 20260505073636 | 58 | 230 | 10.0 | 18.0 | 0.00 | 0.00 | 0.00 | 34 | 1016.5 |
| 20260505073532 | 58 | 360 | 9.0 | 18.0 | 0.00 | 0.00 | 0.00 | 34 | 1016.5 |
| 20260505073428 | 58 | 219 | 10.0 | 18.0 | 0.00 | 0.00 | 0.00 | 34 | 1016.5 |
| 20260505073331 | 58 | 360 | 9.0 | 18.0 | 0.00 | 0.00 | 0.00 | 34 | 1016.5 |
| 20260505073233 | 58 | 360 | 8.0 | 18.0 | 0.00 | 0.00 | 0.00 | 35 | 1016.5 |
| 20260505073148 | 58 | 205 | 7.0 | 11.0 | 0.00 | 0.00 | 0.00 | 35 | 1016.5 |
| 20260505073013 | 58 | 214 | 7.0 | 11.0 | 0.00 | 0.00 | 0.00 | 35 | 1016.6 |
| 20260505072923 | 58 | 360 | 7.0 | 11.0 | 0.00 | 0.00 | 0.00 | 35 | 1016.6 |
| 20260505072819 | 58 | 213 | 8.0 | 11.0 | 0.00 | 0.00 | 0.00 | 35 | 1016.6 |
| 20260505072733 | 58 | 360 | 8.0 | 11.0 | 0.00 | 0.00 | 0.00 | 35 | 1016.6 |
| 20260505072629 | 58 | 360 | 8.0 | 11.0 | 0.00 | 0.00 | 0.00 | 35 | 1016.6 |
| 20260505072519 | 58 | 235 | 7.0 | 10.0 | 0.00 | 0.00 | 0.00 | 35 | 1016.6 |
| 20260505072429 | 58 | 207 | 6.0 | 9.0 | 0.00 | 0.00 | 0.00 | 35 | 1016.6 |
| 20260505072322 | 58 | 215 | 6.0 | 9.0 | 0.00 | 0.00 | 0.00 | 35 | 1016.6 |
| 20260505072218 | 58 | 217 | 7.0 | 9.0 | 0.00 | 0.00 | 0.00 | 35 | 1016.6 |
| 20260505072132 | 58 | 224 | 7.0 | 10.0 | 0.00 | 0.00 | 0.00 | 35 | 1016.6 |
| 20260505072042 | 58 | 208 | 7.0 | 10.0 | 0.00 | 0.00 | 0.00 | 35 | 1016.6 |
| 20260505071924 | 58 | 227 | 6.0 | 10.0 | 0.00 | 0.00 | 0.00 | 35 | 1016.6 |
| 20260505071823 | 58 | 221 | 7.0 | 10.0 | 0.00 | 0.00 | 0.00 | 35 | 1016.6 |
| 20260505071715 | 58 | 217 | 6.0 | 9.0 | 0.00 | 0.00 | 0.00 | 35 | 1016.6 |
| 20260505071638 | 58 | 217 | 6.0 | 9.0 | 0.00 | 0.00 | 0.00 | 35 | 1016.6 |
| 20260505071517 | 58 | 227 | 6.0 | 9.0 | 0.00 | 0.00 | 0.00 | 35 | 1016.6 |
| 20260505071446 | 58 | 228 | 6.0 | 9.0 | 0.00 | 0.00 | 0.00 | 35 | 1016.6 |
| 20260505071342 | 58 | 227 | 6.0 | 9.0 | 0.00 | 0.00 | 0.00 | 35 | 1016.6 |
| 20260505071218 | 58 | 221 | 7.0 | 9.0 | 0.00 | 0.00 | 0.00 | 35 | 1016.6 |
| 20260505071114 | 58 | 231 | 7.0 | 9.0 | 0.00 | 0.00 | 0.00 | 35 | 1016.6 |
| 20260505071027 | 58 | 225 | 7.0 | 9.0 | 0.00 | 0.00 | 0.00 | 36 | 1016.6 |
| 20260505070921 | 58 | 232 | 7.0 | 9.0 | 0.00 | 0.00 | 0.00 | 36 | 1016.6 |
| 20260505070831 | 58 | 223 | 7.0 | 9.0 | 0.00 | 0.00 | 0.00 | 36 | 1016.6 |
| 20260505070727 | 58 | 226 | 7.0 | 9.0 | 0.00 | 0.00 | 0.00 | 36 | 1016.6 |
| 20260505070637 | 58 | 227 | 7.0 | 9.0 | 0.00 | 0.00 | 0.00 | 36 | 1016.6 |
| 20260505070513 | 58 | 219 | 7.0 | 9.0 | 0.00 | 0.00 | 0.00 | 36 | 1016.6 |
| 20260505070443 | 58 | 224 | 7.0 | 9.0 | 0.00 | 0.00 | 0.00 | 36 | 1016.6 |
| 20260505070329 | 58 | 223 | 7.0 | 9.0 | 0.00 | 0.00 | 0.00 | 36 | 1016.6 |
| 20260505070216 | 58 | 360 | 7.0 | 9.0 | 0.00 | 0.00 | 0.00 | 36 | 1016.6 |
| 20260505070145 | 58 | 236 | 7.0 | 9.0 | 0.00 | 0.00 | 0.00 | 36 | 1016.6 |
| 20260505070029 | 58 | 219 | 6.0 | 9.0 | 0.00 | 0.00 | 0.00 | 35 | 1016.8 |
| 20260505065922 | 58 | 217 | 6.0 | 9.0 | 0.00 | 0.00 | 0.00 | 35 | 1016.8 |
| 20260505065818 | 58 | 217 | 6.0 | 9.0 | 0.00 | 0.00 | 0.00 | 35 | 1016.8 |
| 20260505065732 | 58 | 217 | 6.0 | 9.0 | 0.00 | 0.00 | 0.00 | 35 | 1016.8 |
| 20260505065628 | 58 | 360 | 6.0 | 9.0 | 0.00 | 0.00 | 0.00 | 35 | 1016.8 |
| 20260505065524 | 58 | 228 | 6.0 | 10.0 | 0.00 | 0.00 | 0.00 | 35 | 1016.8 |
| 20260505065413 | 58 | 229 | 5.0 | 10.0 | 0.00 | 0.00 | 0.00 | 35 | 1016.8 |
| 20260505065323 | 58 | 232 | 5.0 | 10.0 | 0.00 | 0.00 | 0.00 | 35 | 1016.8 |
| 20260505065216 | 58 | 234 | 5.0 | 10.0 | 0.00 | 0.00 | 0.00 | 35 | 1016.8 |
| 20260505065130 | 58 | 234 | 5.0 | 10.0 | 0.00 | 0.00 | 0.00 | 35 | 1016.8 |
| 20260505065027 | 58 | 233 | 5.0 | 10.0 | 0.00 | 0.00 | 0.00 | 35 | 1016.8 |
| 20260505064916 | 58 | 255 | 5.0 | 10.0 | 0.00 | 0.00 | 0.00 | 35 | 1016.8 |
| 20260505064827 | 58 | 254 | 6.0 | 10.0 | 0.00 | 0.00 | 0.00 | 35 | 1016.8 |
| 20260505064730 | 58 | 257 | 6.0 | 9.0 | 0.00 | 0.00 | 0.00 | 35 | 1016.8 |
| 20260505064633 | 58 | 360 | 6.0 | 10.0 | 0.00 | 0.00 | 0.00 | 34 | 1016.8 |
| 20260505064532 | 58 | 248 | 5.0 | 11.0 | 0.00 | 0.00 | 0.00 | 34 | 1016.8 |
| 20260505064421 | 58 | 242 | 6.0 | 11.0 | 0.00 | 0.00 | 0.00 | 34 | 1016.8 |
| 20260505064311 | 58 | 360 | 6.0 | 11.0 | 0.00 | 0.00 | 0.00 | 34 | 1016.8 |
| 20260505064224 | 59 | 265 | 6.0 | 11.0 | 0.00 | 0.00 | 0.00 | 34 | 1016.8 |
| 20260505064120 | 58 | 263 | 6.0 | 11.0 | 0.00 | 0.00 | 0.00 | 34 | 1016.8 |
| 20260505064014 | 59 | 261 | 7.0 | 11.0 | 0.00 | 0.00 | 0.00 | 34 | 1016.8 |
| 20260505063947 | 59 | 271 | 7.0 | 11.0 | 0.00 | 0.00 | 0.00 | 34 | 1016.8 |
| 20260505063823 | 59 | 264 | 7.0 | 12.0 | 0.00 | 0.00 | 0.00 | 34 | 1016.8 |
| 20260505063733 | 59 | 284 | 7.0 | 12.0 | 0.00 | 0.00 | 0.00 | 34 | 1016.8 |
| 20260505063615 | 59 | 264 | 7.0 | 12.0 | 0.00 | 0.00 | 0.00 | 34 | 1016.8 |
| 20260505063525 | 59 | 259 | 7.0 | 12.0 | 0.00 | 0.00 | 0.00 | 34 | 1016.8 |
| 20260505063421 | 59 | 254 | 7.0 | 12.0 | 0.00 | 0.00 | 0.00 | 34 | 1016.8 |
| 20260505063311 | 59 | 360 | 6.0 | 12.0 | 0.00 | 0.00 | 0.00 | 34 | 1016.8 |
| 20260505063235 | 59 | 261 | 7.0 | 12.0 | 0.00 | 0.00 | 0.00 | 33 | 1016.8 |
| 20260505063130 | 59 | 275 | 7.0 | 12.0 | 0.00 | 0.00 | 0.00 | 33 | 1016.8 |
| 20260505063029 | 59 | 257 | 8.0 | 12.0 | 0.00 | 0.00 | 0.00 | 33 | 1016.7 |
| 20260505062923 | 59 | 261 | 7.0 | 11.0 | 0.00 | 0.00 | 0.00 | 33 | 1016.7 |
| 20260505062816 | 59 | 242 | 7.0 | 10.0 | 0.00 | 0.00 | 0.00 | 33 | 1016.7 |
| 20260505062726 | 59 | 239 | 7.0 | 10.0 | 0.00 | 0.00 | 0.00 | 33 | 1016.7 |
| 20260505062616 | 59 | 252 | 8.0 | 10.0 | 0.00 | 0.00 | 0.00 | 33 | 1016.7 |
| 20260505062529 | 59 | 263 | 8.0 | 10.0 | 0.00 | 0.00 | 0.00 | 33 | 1016.7 |
| 20260505062423 | 59 | 253 | 7.0 | 10.0 | 0.00 | 0.00 | 0.00 | 32 | 1016.7 |
| 20260505062333 | 59 | 235 | 7.0 | 9.0 | 0.00 | 0.00 | 0.00 | 33 | 1016.7 |
| 20260505062243 | 59 | 239 | 7.0 | 9.0 | 0.00 | 0.00 | 0.00 | 32 | 1016.7 |
| 20260505062125 | 59 | 247 | 7.0 | 9.0 | 0.00 | 0.00 | 0.00 | 32 | 1016.7 |
| 20260505062015 | 59 | 215 | 7.0 | 9.0 | 0.00 | 0.00 | 0.00 | 32 | 1016.7 |
| 20260505061928 | 59 | 360 | 6.0 | 9.0 | 0.00 | 0.00 | 0.00 | 32 | 1016.7 |
| 20260505061842 | 59 | 223 | 6.0 | 9.0 | 0.00 | 0.00 | 0.00 | 31 | 1016.7 |
| 20260505061718 | 59 | 244 | 6.0 | 9.0 | 0.00 | 0.00 | 0.00 | 31 | 1016.7 |
| 20260505061639 | 59 | 244 | 6.0 | 9.0 | 0.00 | 0.00 | 0.00 | 31 | 1016.7 |
| 20260505061530 | 59 | 234 | 6.0 | 9.0 | 0.00 | 0.00 | 0.00 | 31 | 1016.8 |
| 20260505061420 | 59 | 220 | 6.0 | 9.0 | 0.00 | 0.00 | 0.00 | 31 | 1016.8 |
| 20260505061314 | 59 | 224 | 6.0 | 8.0 | 0.00 | 0.00 | 0.00 | 30 | 1016.8 |
| 20260505061211 | 59 | 231 | 6.0 | 9.0 | 0.00 | 0.00 | 0.00 | 30 | 1016.8 |
| 20260505061144 | 59 | 234 | 6.0 | 9.0 | 0.00 | 0.00 | 0.00 | 30 | 1016.8 |
| 20260505061023 | 59 | 232 | 6.0 | 9.0 | 0.00 | 0.00 | 0.00 | 30 | 1016.8 |
| 20260505060932 | 59 | 229 | 6.0 | 9.0 | 0.00 | 0.00 | 0.00 | 30 | 1016.8 |
| 20260505060818 | 59 | 238 | 6.0 | 9.0 | 0.00 | 0.00 | 0.00 | 30 | 1016.8 |
| 20260505060727 | 59 | 237 | 6.0 | 10.0 | 0.00 | 0.00 | 0.00 | 30 | 1016.8 |
| 20260505060627 | 59 | 242 | 6.0 | 10.0 | 0.00 | 0.00 | 0.00 | 30 | 1016.8 |
| 20260505060520 | 59 | 242 | 6.0 | 11.0 | 0.00 | 0.00 | 0.00 | 30 | 1016.8 |
| 20260505060413 | 60 | 255 | 6.0 | 11.0 | 0.00 | 0.00 | 0.00 | 30 | 1016.8 |
| 20260505060329 | 60 | 238 | 6.0 | 14.0 | 0.00 | 0.00 | 0.00 | 29 | 1016.8 |
| 20260505060219 | 60 | 249 | 6.0 | 14.0 | 0.00 | 0.00 | 0.00 | 29 | 1016.8 |
| 20260505060144 | 60 | 263 | 7.0 | 16.0 | 0.00 | 0.00 | 0.00 | 29 | 1016.8 |
| 20260505060020 | 60 | 267 | 7.0 | 16.0 | 0.00 | 0.00 | 0.00 | 29 | 1016.7 |
| 20260505055931 | 60 | 242 | 7.0 | 16.0 | 0.00 | 0.00 | 0.00 | 29 | 1016.7 |
| 20260505055827 | 60 | 241 | 7.0 | 16.0 | 0.00 | 0.00 | 0.00 | 29 | 1016.7 |
| 20260505055717 | 60 | 264 | 8.0 | 16.0 | 0.00 | 0.00 | 0.00 | 28 | 1016.7 |
| 20260505055627 | 60 | 261 | 10.0 | 16.0 | 0.00 | 0.00 | 0.00 | 28 | 1016.7 |
| 20260505055521 | 60 | 264 | 10.0 | 16.0 | 0.00 | 0.00 | 0.00 | 28 | 1016.7 |
| 20260505055431 | 60 | 360 | 11.0 | 17.0 | 0.00 | 0.00 | 0.00 | 28 | 1016.7 |
| 20260505055330 | 60 | 360 | 10.0 | 17.0 | 0.00 | 0.00 | 0.00 | 27 | 1016.7 |
| 20260505055220 | 60 | 220 | 11.0 | 17.0 | 0.00 | 0.00 | 0.00 | 27 | 1016.7 |
| 20260505055130 | 60 | 360 | 11.0 | 17.0 | 0.00 | 0.00 | 0.00 | 27 | 1016.7 |
| 20260505055023 | 60 | 360 | 11.0 | 17.0 | 0.00 | 0.00 | 0.00 | 27 | 1016.7 |
| 20260505054917 | 60 | 246 | 11.0 | 17.0 | 0.00 | 0.00 | 0.00 | 27 | 1016.7 |
| 20260505054826 | 60 | 360 | 11.0 | 17.0 | 0.00 | 0.00 | 0.00 | 27 | 1016.7 |
| 20260505054717 | 60 | 360 | 11.0 | 17.0 | 0.00 | 0.00 | 0.00 | 27 | 1016.7 |
| 20260505054643 | 60 | 360 | 11.0 | 17.0 | 0.00 | 0.00 | 0.00 | 26 | 1016.7 |
| 20260505054528 | 61 | 246 | 11.0 | 17.0 | 0.00 | 0.00 | 0.00 | 26 | 1016.7 |
| 20260505054427 | 61 | 360 | 9.0 | 19.0 | 0.00 | 0.00 | 0.00 | 26 | 1016.7 |
| 20260505054320 | 61 | 360 | 8.0 | 19.0 | 0.00 | 0.00 | 0.00 | 26 | 1016.7 |
| 20260505054216 | 61 | 267 | 9.0 | 19.0 | 0.00 | 0.00 | 0.00 | 26 | 1016.7 |
| 20260505054126 | 61 | 242 | 10.0 | 19.0 | 0.00 | 0.00 | 0.00 | 25 | 1016.7 |
| 20260505054016 | 61 | 360 | 9.0 | 19.0 | 0.00 | 0.00 | 0.00 | 25 | 1016.7 |
| 20260505053913 | 61 | 360 | 10.0 | 19.0 | 0.00 | 0.00 | 0.00 | 25 | 1016.7 |
| 20260505053823 | 61 | 360 | 11.0 | 19.0 | 0.00 | 0.00 | 0.00 | 25 | 1016.7 |
| 20260505053733 | 61 | 250 | 13.0 | 19.0 | 0.00 | 0.00 | 0.00 | 25 | 1016.7 |
| 20260505053623 | 61 | 252 | 14.0 | 19.0 | 0.00 | 0.00 | 0.00 | 25 | 1016.7 |
| 20260505053533 | 61 | 360 | 15.0 | 19.0 | 0.00 | 0.00 | 0.00 | 25 | 1016.7 |
| 20260505053427 | 61 | 239 | 15.0 | 19.0 | 0.00 | 0.00 | 0.00 | 25 | 1016.7 |
| 20260505053317 | 61 | 239 | 15.0 | 19.0 | 0.00 | 0.00 | 0.00 | 25 | 1016.7 |
| 20260505053218 | 61 | 246 | 14.0 | 19.0 | 0.00 | 0.00 | 0.00 | 25 | 1016.7 |
| 20260505053128 | 61 | 243 | 14.0 | 19.0 | 0.00 | 0.00 | 0.00 | 25 | 1016.7 |
| 20260505053027 | 61 | 360 | 14.0 | 19.0 | 0.00 | 0.00 | 0.00 | 25 | 1016.8 |
| 20260505052924 | 61 | 246 | 14.0 | 19.0 | 0.00 | 0.00 | 0.00 | 25 | 1016.8 |
| 20260505052814 | 61 | 360 | 13.0 | 19.0 | 0.00 | 0.00 | 0.00 | 25 | 1016.8 |
| 20260505052724 | 61 | 230 | 13.0 | 19.0 | 0.00 | 0.00 | 0.00 | 25 | 1016.8 |
| 20260505052620 | 61 | 246 | 13.0 | 19.0 | 0.00 | 0.00 | 0.00 | 25 | 1016.8 |
| 20260505052530 | 61 | 221 | 13.0 | 19.0 | 0.00 | 0.00 | 0.00 | 25 | 1016.8 |
| 20260505052419 | 61 | 244 | 13.0 | 19.0 | 0.00 | 0.00 | 0.00 | 25 | 1016.8 |
| 20260505052313 | 61 | 232 | 12.0 | 19.0 | 0.00 | 0.00 | 0.00 | 25 | 1016.8 |
| 20260505052246 | 61 | 360 | 13.0 | 19.0 | 0.00 | 0.00 | 0.00 | 25 | 1016.8 |
| 20260505052122 | 61 | 223 | 14.0 | 19.0 | 0.00 | 0.00 | 0.00 | 25 | 1016.8 |
| 20260505052019 | 61 | 219 | 12.0 | 19.0 | 0.00 | 0.00 | 0.00 | 25 | 1016.8 |
| 20260505051929 | 61 | 221 | 11.0 | 19.0 | 0.00 | 0.00 | 0.00 | 25 | 1016.8 |
| 20260505051824 | 61 | 217 | 9.0 | 20.0 | 0.00 | 0.00 | 0.00 | 25 | 1016.8 |
| 20260505051721 | 61 | 231 | 11.0 | 20.0 | 0.00 | 0.00 | 0.00 | 25 | 1016.8 |
| 20260505051628 | 61 | 360 | 13.0 | 20.0 | 0.00 | 0.00 | 0.00 | 25 | 1016.8 |
| 20260505051527 | 61 | 236 | 14.0 | 20.0 | 0.00 | 0.00 | 0.00 | 25 | 1017.0 |
| 20260505051416 | 61 | 240 | 13.0 | 20.0 | 0.00 | 0.00 | 0.00 | 25 | 1017.0 |
| 20260505051326 | 61 | 360 | 12.0 | 20.0 | 0.00 | 0.00 | 0.00 | 25 | 1017.0 |
| 20260505051220 | 61 | 201 | 12.0 | 20.0 | 0.00 | 0.00 | 0.00 | 25 | 1017.0 |
| 20260505051133 | 61 | 215 | 13.0 | 20.0 | 0.00 | 0.00 | 0.00 | 25 | 1017.0 |
| 20260505051032 | 61 | 360 | 14.0 | 20.0 | 0.00 | 0.00 | 0.00 | 25 | 1017.0 |
| 20260505050922 | 61 | 227 | 14.0 | 20.0 | 0.00 | 0.00 | 0.00 | 25 | 1017.0 |
| 20260505050832 | 61 | 360 | 14.0 | 20.0 | 0.00 | 0.00 | 0.00 | 25 | 1017.0 |
| 20260505050728 | 61 | 221 | 14.0 | 19.0 | 0.00 | 0.00 | 0.00 | 25 | 1017.0 |
| 20260505050628 | 61 | 360 | 12.0 | 19.0 | 0.00 | 0.00 | 0.00 | 25 | 1017.0 |
| 20260505050518 | 61 | 360 | 12.0 | 19.0 | 0.00 | 0.00 | 0.00 | 25 | 1017.0 |
| 20260505050431 | 61 | 234 | 12.0 | 19.0 | 0.00 | 0.00 | 0.00 | 25 | 1017.0 |
| 20260505050321 | 61 | 360 | 14.0 | 20.0 | 0.00 | 0.00 | 0.00 | 24 | 1017.0 |
| 20260505050211 | 61 | 360 | 15.0 | 20.0 | 0.00 | 0.00 | 0.00 | 24 | 1017.0 |
| 20260505050138 | 61 | 238 | 15.0 | 20.0 | 0.00 | 0.00 | 0.00 | 24 | 1017.0 |